Time,TemperatureF,DewpointF,PressureIn,WindDirection,WindDirectionDegrees,WindSpeedMPH,WindSpeedGustMPH,Humidity,HourlyPrecipIn,Conditions,Clouds,dailyrainin,SoftwareType,DateUTC
2013-03-14 00:01:00,34.7,15.6,30.33,North,-999,-999.0,-999.0,45,-99.99,,,-99.99,WSDL version 423,2013-03-14 05:01:00,
2013-03-14 00:04:00,34.7,15.8,30.33,North,-999,-999.0,-999.0,46,-99.99,,,-99.99,WSDL version 423,2013-03-14 05:04:00,
2013-03-14 00:06:00,34.7,16.0,30.33,North,-999,-999.0,-999.0,46,-99.99,,,-99.99,WSDL version 423,2013-03-14 05:06:00,
2013-03-14 00:07:00,34.7,16.0,30.33,North,-999,-999.0,-999.0,46,-99.99,,,-99.99,WSDL version 423,2013-03-14 05:07:00,
2013-03-14 00:09:00,34.7,16.0,30.33,North,-999,-999.0,-999.0,46,-99.99,,,-99.99,WSDL version 423,2013-03-14 05:09:00,
2013-03-14 00:12:00,34.6,16.0,30.33,North,-999,-999.0,-999.0,46,-99.99,,,-99.99,WSDL version 423,2013-03-14 05:12:00,
2013-03-14 00:13:00,34.6,15.9,30.33,North,-999,-999.0,-999.0,46,-99.99,,,-99.99,WSDL version 423,2013-03-14 05:13:00,
2013-03-14 00:16:00,34.3,15.6,30.30,North,-999,-999.0,-999.0,46,-99.99,,,-99.99,WSDL version 423,2013-03-14 05:16:00,
2013-03-14 00:20:00,33.8,15.2,30.30,North,-999,-999.0,-999.0,46,-99.99,,,-99.99,WSDL version 423,2013-03-14 05:20:00,
2013-03-14 00:22:00,33.7,15.1,30.30,North,-999,-999.0,-999.0,46,-99.99,,,-99.99,WSDL version 423,2013-03-14 05:22:00,
2013-03-14 00:23:00,33.6,15.1,30.30,North,-999,-999.0,-999.0,46,-99.99,,,-99.99,WSDL version 423,2013-03-14 05:23:00,
2013-03-14 00:26:00,33.6,15.0,30.30,North,-999,-999.0,-999.0,46,-99.99,,,-99.99,WSDL version 423,2013-03-14 05:26:00,
2013-03-14 00:27:00,33.6,15.0,30.30,North,-999,-999.0,-999.0,46,-99.99,,,-99.99,WSDL version 423,2013-03-14 05:27:00,
2013-03-14 00:29:00,33.6,15.0,30.30,North,-999,-999.0,-999.0,46,-99.99,,,-99.99,WSDL version 423,2013-03-14 05:29:00,
2013-03-14 00:30:00,33.6,15.0,30.30,North,-999,-999.0,-999.0,46,-99.99,,,-99.99,WSDL version 423,2013-03-14 05:30:00,
2013-03-14 00:31:00,33.6,15.0,30.30,North,-999,-999.0,-999.0,46,-99.99,,,-99.99,WSDL version 423,2013-03-14 05:31:00,
2013-03-14 00:32:00,33.6,15.0,30.30,North,-999,-999.0,-999.0,46,-99.99,,,-99.99,WSDL version 423,2013-03-14 05:32:00,
2013-03-14 00:35:00,33.6,15.0,30.30,North,-999,-999.0,-999.0,46,-99.99,,,-99.99,WSDL version 423,2013-03-14 05:35:00,
2013-03-14 00:37:00,33.5,15.0,30.30,North,-999,-999.0,-999.0,47,-99.99,,,-99.99,WSDL version 423,2013-03-14 05:37:00,
2013-03-14 00:39:00,33.2,14.9,30.30,North,-999,-999.0,-999.0,47,-99.99,,,-99.99,WSDL version 423,2013-03-14 05:39:00,
2013-03-14 00:42:00,32.8,14.8,30.30,North,-999,-999.0,-999.0,47,-99.99,,,-99.99,WSDL version 423,2013-03-14 05:42:00,
2013-03-14 00:43:00,32.7,14.6,30.30,North,-999,-999.0,-999.0,47,-99.99,,,-99.99,WSDL version 423,2013-03-14 05:43:00,
2013-03-14 00:44:00,32.6,14.6,30.30,North,-999,-999.0,-999.0,47,-99.99,,,-99.99,WSDL version 423,2013-03-14 05:44:00,
2013-03-14 00:48:00,32.2,14.8,30.30,North,-999,-999.0,-999.0,48,-99.99,,,-99.99,WSDL version 423,2013-03-14 05:48:00,
2013-03-14 00:49:00,32.2,15.2,30.30,North,-999,-999.0,-999.0,48,-99.99,,,-99.99,WSDL version 423,2013-03-14 05:49:00,
2013-03-14 00:51:00,32.0,16.1,30.30,North,-999,-999.0,-999.0,48,-99.99,,,-99.99,WSDL version 423,2013-03-14 05:51:00,
2013-03-14 00:54:00,31.9,16.4,30.30,North,-999,-999.0,-999.0,49,-99.99,,,-99.99,WSDL version 423,2013-03-14 05:54:00,
2013-03-14 00:58:00,31.7,16.4,30.30,North,-999,-999.0,-999.0,48,-99.99,,,-99.99,WSDL version 423,2013-03-14 05:58:00,
2013-03-14 01:00:00,31.6,16.2,30.30,North,-999,-999.0,-999.0,48,-99.99,,,-99.99,WSDL version 423,2013-03-14 06:00:00,
2013-03-14 01:01:00,31.6,16.2,30.30,North,-999,-999.0,-999.0,48,-99.99,,,-99.99,WSDL version 423,2013-03-14 06:01:00,
2013-03-14 01:03:00,31.6,16.0,30.30,North,-999,-999.0,-999.0,48,-99.99,,,-99.99,WSDL version 423,2013-03-14 06:03:00,
2013-03-14 01:08:00,31.8,16.2,30.30,North,-999,-999.0,-999.0,48,-99.99,,,-99.99,WSDL version 423,2013-03-14 06:08:00,
2013-03-14 01:09:00,31.8,16.2,30.30,North,-999,-999.0,-999.0,48,-99.99,,,-99.99,WSDL version 423,2013-03-14 06:09:00,
2013-03-14 01:10:00,31.8,16.2,30.30,North,-999,-999.0,-999.0,48,-99.99,,,-99.99,WSDL version 423,2013-03-14 06:10:00,
2013-03-14 01:13:00,31.8,16.2,30.30,North,-999,-999.0,-999.0,48,-99.99,,,-99.99,WSDL version 423,2013-03-14 06:13:00,
2013-03-14 01:14:00,31.8,16.2,30.30,North,-999,-999.0,-999.0,48,-99.99,,,-99.99,WSDL version 423,2013-03-14 06:14:00,
2013-03-14 01:16:00,31.8,16.2,30.30,North,-999,-999.0,-999.0,48,-99.99,,,-99.99,WSDL version 423,2013-03-14 06:16:00,
2013-03-14 01:19:00,31.8,16.2,30.30,North,-999,-999.0,-999.0,48,-99.99,,,-99.99,WSDL version 423,2013-03-14 06:19:00,
2013-03-14 01:22:00,31.8,16.2,30.30,North,-999,-999.0,-999.0,48,-99.99,,,-99.99,WSDL version 423,2013-03-14 06:22:00,
2013-03-14 01:24:00,31.8,16.2,30.30,North,-999,-999.0,-999.0,48,-99.99,,,-99.99,WSDL version 423,2013-03-14 06:24:00,
2013-03-14 01:25:00,31.8,16.2,30.30,North,-999,-999.0,-999.0,48,-99.99,,,-99.99,WSDL version 423,2013-03-14 06:25:00,
2013-03-14 01:26:00,31.8,16.2,30.30,North,-999,-999.0,-999.0,48,-99.99,,,-99.99,WSDL version 423,2013-03-14 06:26:00,
2013-03-14 01:31:00,31.8,16.5,30.30,North,-999,-999.0,-999.0,49,-99.99,,,-99.99,WSDL version 423,2013-03-14 06:31:00,
2013-03-14 01:32:00,31.8,16.6,30.30,North,-999,-999.0,-999.0,49,-99.99,,,-99.99,WSDL version 423,2013-03-14 06:32:00,
2013-03-14 01:35:00,31.7,16.6,30.30,North,-999,-999.0,-999.0,50,-99.99,,,-99.99,WSDL version 423,2013-03-14 06:35:00,
2013-03-14 01:37:00,31.5,16.6,30.30,North,-999,-999.0,-999.0,50,-99.99,,,-99.99,WSDL version 423,2013-03-14 06:37:00,
2013-03-14 01:38:00,31.4,16.6,30.30,North,-999,-999.0,-999.0,50,-99.99,,,-99.99,WSDL version 423,2013-03-14 06:38:00,
2013-03-14 01:40:00,31.3,16.5,30.30,North,-999,-999.0,-999.0,50,-99.99,,,-99.99,WSDL version 423,2013-03-14 06:40:00,
2013-03-14 01:43:00,31.1,16.3,30.30,North,-999,-999.0,-999.0,50,-99.99,,,-99.99,WSDL version 423,2013-03-14 06:43:00,
2013-03-14 01:47:00,31.0,16.4,30.33,North,-999,-999.0,-999.0,51,-99.99,,,-99.99,WSDL version 423,2013-03-14 06:47:00,
2013-03-14 01:48:00,31.0,16.4,30.33,North,-999,-999.0,-999.0,51,-99.99,,,-99.99,WSDL version 423,2013-03-14 06:48:00,
2013-03-14 01:49:00,30.9,16.5,30.33,North,-999,-999.0,-999.0,51,-99.99,,,-99.99,WSDL version 423,2013-03-14 06:49:00,
2013-03-14 01:53:00,30.8,16.4,30.33,North,-999,-999.0,-999.0,51,-99.99,,,-99.99,WSDL version 423,2013-03-14 06:53:00,
2013-03-14 01:54:00,30.7,16.3,30.33,North,-999,-999.0,-999.0,51,-99.99,,,-99.99,WSDL version 423,2013-03-14 06:54:00,
2013-03-14 01:59:00,30.9,16.4,30.33,North,-999,-999.0,-999.0,51,-99.99,,,-99.99,WSDL version 423,2013-03-14 06:59:00,
2013-03-14 02:01:00,30.9,16.5,30.33,North,-999,-999.0,-999.0,51,-99.99,,,-99.99,WSDL version 423,2013-03-14 07:01:00,
2013-03-14 02:02:00,30.9,16.5,30.33,North,-999,-999.0,-999.0,51,-99.99,,,-99.99,WSDL version 423,2013-03-14 07:02:00,
2013-03-14 02:04:00,30.9,16.5,30.33,North,-999,-999.0,-999.0,51,-99.99,,,-99.99,WSDL version 423,2013-03-14 07:04:00,
2013-03-14 02:09:00,30.9,16.5,30.33,North,-999,-999.0,-999.0,52,-99.99,,,-99.99,WSDL version 423,2013-03-14 07:09:00,
2013-03-14 02:10:00,30.8,16.6,30.33,North,-999,-999.0,-999.0,52,-99.99,,,-99.99,WSDL version 423,2013-03-14 07:10:00,
2013-03-14 02:12:00,30.8,16.7,30.33,North,-999,-999.0,-999.0,52,-99.99,,,-99.99,WSDL version 423,2013-03-14 07:12:00,
2013-03-14 02:15:00,30.6,16.6,30.30,North,-999,-999.0,-999.0,52,-99.99,,,-99.99,WSDL version 423,2013-03-14 07:15:00,
2013-03-14 02:18:00,30.5,16.5,30.30,North,-999,-999.0,-999.0,52,-99.99,,,-99.99,WSDL version 423,2013-03-14 07:18:00,
2013-03-14 02:20:00,30.5,16.5,30.30,North,-999,-999.0,-999.0,52,-99.99,,,-99.99,WSDL version 423,2013-03-14 07:20:00,
2013-03-14 02:25:00,30.3,16.5,30.30,North,-999,-999.0,-999.0,52,-99.99,,,-99.99,WSDL version 423,2013-03-14 07:25:00,
2013-03-14 02:26:00,30.3,16.5,30.30,North,-999,-999.0,-999.0,52,-99.99,,,-99.99,WSDL version 423,2013-03-14 07:26:00,
2013-03-14 02:27:00,30.3,16.5,30.30,North,-999,-999.0,-999.0,52,-99.99,,,-99.99,WSDL version 423,2013-03-14 07:27:00,
2013-03-14 02:29:00,30.2,16.5,30.30,North,-999,-999.0,-999.0,52,-99.99,,,-99.99,WSDL version 423,2013-03-14 07:29:00,
2013-03-14 02:33:00,30.2,16.4,30.30,North,-999,-999.0,-999.0,52,-99.99,,,-99.99,WSDL version 423,2013-03-14 07:33:00,
2013-03-14 02:35:00,30.3,16.4,30.30,North,-999,-999.0,-999.0,52,-99.99,,,-99.99,WSDL version 423,2013-03-14 07:35:00,
2013-03-14 02:40:00,30.4,16.4,30.30,North,-999,-999.0,-999.0,52,-99.99,,,-99.99,WSDL version 423,2013-03-14 07:40:00,
2013-03-14 02:43:00,30.4,16.6,30.30,North,-999,-999.0,-999.0,52,-99.99,,,-99.99,WSDL version 423,2013-03-14 07:43:00,
2013-03-14 02:44:00,30.3,16.6,30.30,North,-999,-999.0,-999.0,52,-99.99,,,-99.99,WSDL version 423,2013-03-14 07:44:00,
2013-03-14 02:46:00,30.3,16.8,30.30,North,-999,-999.0,-999.0,53,-99.99,,,-99.99,WSDL version 423,2013-03-14 07:46:00,
2013-03-14 02:47:00,30.2,16.8,30.30,North,-999,-999.0,-999.0,53,-99.99,,,-99.99,WSDL version 423,2013-03-14 07:47:00,
2013-03-14 02:48:00,30.2,16.8,30.30,North,-999,-999.0,-999.0,53,-99.99,,,-99.99,WSDL version 423,2013-03-14 07:48:00,
2013-03-14 02:52:00,29.9,16.8,30.30,North,-999,-999.0,-999.0,54,-99.99,,,-99.99,WSDL version 423,2013-03-14 07:52:00,
2013-03-14 02:53:00,29.9,16.8,30.30,North,-999,-999.0,-999.0,54,-99.99,,,-99.99,WSDL version 423,2013-03-14 07:53:00,
2013-03-14 02:54:00,29.9,16.8,30.30,North,-999,-999.0,-999.0,54,-99.99,,,-99.99,WSDL version 423,2013-03-14 07:54:00,
2013-03-14 02:59:00,29.7,16.6,30.30,North,-999,-999.0,-999.0,54,-99.99,,,-99.99,WSDL version 423,2013-03-14 07:59:00,
2013-03-14 03:01:00,29.7,16.6,30.30,North,-999,-999.0,-999.0,53,-99.99,,,-99.99,WSDL version 423,2013-03-14 08:01:00,
2013-03-14 03:02:00,29.6,16.6,30.30,North,-999,-999.0,-999.0,53,-99.99,,,-99.99,WSDL version 423,2013-03-14 08:02:00,
2013-03-14 03:04:00,29.7,16.5,30.30,North,-999,-999.0,-999.0,53,-99.99,,,-99.99,WSDL version 423,2013-03-14 08:04:00,
2013-03-14 03:05:00,29.7,16.5,30.30,North,-999,-999.0,-999.0,53,-99.99,,,-99.99,WSDL version 423,2013-03-14 08:05:00,
2013-03-14 03:07:00,29.8,16.6,30.30,North,-999,-999.0,-999.0,54,-99.99,,,-99.99,WSDL version 423,2013-03-14 08:07:00,
2013-03-14 03:09:00,29.8,16.7,30.30,North,-999,-999.0,-999.0,54,-99.99,,,-99.99,WSDL version 423,2013-03-14 08:09:00,
2013-03-14 03:14:00,29.7,16.9,30.30,North,-999,-999.0,-999.0,55,-99.99,,,-99.99,WSDL version 423,2013-03-14 08:14:00,
2013-03-14 03:15:00,29.6,16.9,30.30,North,-999,-999.0,-999.0,55,-99.99,,,-99.99,WSDL version 423,2013-03-14 08:15:00,
2013-03-14 03:16:00,29.6,16.9,30.30,North,-999,-999.0,-999.0,55,-99.99,,,-99.99,WSDL version 423,2013-03-14 08:16:00,
2013-03-14 03:19:00,29.5,16.9,30.30,North,-999,-999.0,-999.0,55,-99.99,,,-99.99,WSDL version 423,2013-03-14 08:19:00,
2013-03-14 03:22:00,29.5,16.9,30.30,North,-999,-999.0,-999.0,55,-99.99,,,-99.99,WSDL version 423,2013-03-14 08:22:00,
2013-03-14 03:23:00,29.5,16.9,30.30,North,-999,-999.0,-999.0,55,-99.99,,,-99.99,WSDL version 423,2013-03-14 08:23:00,
2013-03-14 03:24:00,29.5,16.9,30.30,North,-999,-999.0,-999.0,55,-99.99,,,-99.99,WSDL version 423,2013-03-14 08:24:00,
2013-03-14 03:26:00,29.5,16.9,30.30,North,-999,-999.0,-999.0,55,-99.99,,,-99.99,WSDL version 423,2013-03-14 08:26:00,
2013-03-14 03:27:00,29.4,16.9,30.30,North,-999,-999.0,-999.0,55,-99.99,,,-99.99,WSDL version 423,2013-03-14 08:27:00,
2013-03-14 03:28:00,29.4,16.8,30.30,North,-999,-999.0,-999.0,55,-99.99,,,-99.99,WSDL version 423,2013-03-14 08:28:00,
2013-03-14 03:31:00,29.3,16.9,30.30,North,-999,-999.0,-999.0,56,-99.99,,,-99.99,WSDL version 423,2013-03-14 08:31:00,
2013-03-14 03:34:00,29.2,16.9,30.30,North,-999,-999.0,-999.0,56,-99.99,,,-99.99,WSDL version 423,2013-03-14 08:34:00,
2013-03-14 03:36:00,29.1,16.9,30.30,North,-999,-999.0,-999.0,56,-99.99,,,-99.99,WSDL version 423,2013-03-14 08:36:00,
2013-03-14 03:37:00,29.1,16.9,30.30,North,-999,-999.0,-999.0,56,-99.99,,,-99.99,WSDL version 423,2013-03-14 08:37:00,
2013-03-14 03:39:00,29.1,16.9,30.30,North,-999,-999.0,-999.0,56,-99.99,,,-99.99,WSDL version 423,2013-03-14 08:39:00,
2013-03-14 03:40:00,29.1,16.9,30.30,North,-999,-999.0,-999.0,56,-99.99,,,-99.99,WSDL version 423,2013-03-14 08:40:00,
2013-03-14 03:42:00,29.1,16.9,30.30,North,-999,-999.0,-999.0,56,-99.99,,,-99.99,WSDL version 423,2013-03-14 08:42:00,
2013-03-14 03:45:00,29.0,16.8,30.30,North,-999,-999.0,-999.0,56,-99.99,,,-99.99,WSDL version 423,2013-03-14 08:45:00,
2013-03-14 03:46:00,29.0,16.8,30.30,North,-999,-999.0,-999.0,56,-99.99,,,-99.99,WSDL version 423,2013-03-14 08:46:00,
2013-03-14 03:48:00,29.0,16.8,30.30,North,-999,-999.0,-999.0,56,-99.99,,,-99.99,WSDL version 423,2013-03-14 08:48:00,
2013-03-14 03:51:00,29.1,16.9,30.30,North,-999,-999.0,-999.0,56,-99.99,,,-99.99,WSDL version 423,2013-03-14 08:51:00,
2013-03-14 03:52:00,29.1,16.9,30.30,North,-999,-999.0,-999.0,56,-99.99,,,-99.99,WSDL version 423,2013-03-14 08:52:00,
2013-03-14 03:55:00,29.0,16.9,30.30,North,-999,-999.0,-999.0,57,-99.99,,,-99.99,WSDL version 423,2013-03-14 08:55:00,
2013-03-14 03:56:00,29.0,16.9,30.30,North,-999,-999.0,-999.0,57,-99.99,,,-99.99,WSDL version 423,2013-03-14 08:56:00,
2013-03-14 03:57:00,29.0,17.0,30.30,North,-999,-999.0,-999.0,57,-99.99,,,-99.99,WSDL version 423,2013-03-14 08:57:00,
2013-03-14 04:00:00,28.8,17.0,30.30,North,-999,-999.0,-999.0,57,-99.99,,,-99.99,WSDL version 423,2013-03-14 09:00:00,
2013-03-14 04:02:00,28.8,16.9,30.30,North,-999,-999.0,-999.0,57,-99.99,,,-99.99,WSDL version 423,2013-03-14 09:02:00,
2013-03-14 04:04:00,28.7,16.9,30.30,North,-999,-999.0,-999.0,57,-99.99,,,-99.99,WSDL version 423,2013-03-14 09:04:00,
2013-03-14 04:05:00,28.7,16.9,30.30,North,-999,-999.0,-999.0,57,-99.99,,,-99.99,WSDL version 423,2013-03-14 09:05:00,
2013-03-14 04:06:00,28.7,16.9,30.30,North,-999,-999.0,-999.0,57,-99.99,,,-99.99,WSDL version 423,2013-03-14 09:06:00,
2013-03-14 04:08:00,28.7,16.9,30.30,North,-999,-999.0,-999.0,57,-99.99,,,-99.99,WSDL version 423,2013-03-14 09:08:00,
2013-03-14 04:11:00,28.7,16.9,30.30,North,-999,-999.0,-999.0,57,-99.99,,,-99.99,WSDL version 423,2013-03-14 09:11:00,
2013-03-14 04:13:00,28.7,16.9,30.30,North,-999,-999.0,-999.0,57,-99.99,,,-99.99,WSDL version 423,2013-03-14 09:13:00,
2013-03-14 04:14:00,28.7,16.8,30.30,North,-999,-999.0,-999.0,57,-99.99,,,-99.99,WSDL version 423,2013-03-14 09:14:00,
2013-03-14 04:17:00,28.7,16.8,30.30,North,-999,-999.0,-999.0,57,-99.99,,,-99.99,WSDL version 423,2013-03-14 09:17:00,
2013-03-14 04:19:00,28.8,16.9,30.30,North,-999,-999.0,-999.0,57,-99.99,,,-99.99,WSDL version 423,2013-03-14 09:19:00,
2013-03-14 04:22:00,28.9,17.0,30.30,North,-999,-999.0,-999.0,57,-99.99,,,-99.99,WSDL version 423,2013-03-14 09:22:00,
2013-03-14 04:23:00,28.9,17.1,30.30,North,-999,-999.0,-999.0,57,-99.99,,,-99.99,WSDL version 423,2013-03-14 09:23:00,
2013-03-14 04:26:00,29.0,17.2,30.30,North,-999,-999.0,-999.0,57,-99.99,,,-99.99,WSDL version 423,2013-03-14 09:26:00,
2013-03-14 04:29:00,29.1,17.2,30.30,North,-999,-999.0,-999.0,57,-99.99,,,-99.99,WSDL version 423,2013-03-14 09:29:00,
2013-03-14 04:31:00,29.2,17.3,30.30,North,-999,-999.0,-999.0,57,-99.99,,,-99.99,WSDL version 423,2013-03-14 09:31:00,
2013-03-14 04:33:00,29.3,17.3,30.30,North,-999,-999.0,-999.0,57,-99.99,,,-99.99,WSDL version 423,2013-03-14 09:33:00,
2013-03-14 04:34:00,29.3,17.4,30.30,North,-999,-999.0,-999.0,57,-99.99,,,-99.99,WSDL version 423,2013-03-14 09:34:00,
2013-03-14 04:39:00,29.5,17.6,30.30,North,-999,-999.0,-999.0,57,-99.99,,,-99.99,WSDL version 423,2013-03-14 09:39:00,
2013-03-14 04:40:00,29.5,17.6,30.30,North,-999,-999.0,-999.0,57,-99.99,,,-99.99,WSDL version 423,2013-03-14 09:40:00,
2013-03-14 04:41:00,29.5,17.6,30.30,North,-999,-999.0,-999.0,57,-99.99,,,-99.99,WSDL version 423,2013-03-14 09:41:00,
2013-03-14 04:43:00,29.5,17.7,30.30,North,-999,-999.0,-999.0,57,-99.99,,,-99.99,WSDL version 423,2013-03-14 09:43:00,
2013-03-14 04:45:00,29.6,17.8,30.30,North,-999,-999.0,-999.0,58,-99.99,,,-99.99,WSDL version 423,2013-03-14 09:45:00,
2013-03-14 04:48:00,29.7,18.1,30.30,North,-999,-999.0,-999.0,58,-99.99,,,-99.99,WSDL version 423,2013-03-14 09:48:00,
2013-03-14 04:49:00,29.8,18.2,30.30,North,-999,-999.0,-999.0,58,-99.99,,,-99.99,WSDL version 423,2013-03-14 09:49:00,
2013-03-14 04:52:00,29.8,18.3,30.30,North,-999,-999.0,-999.0,58,-99.99,,,-99.99,WSDL version 423,2013-03-14 09:52:00,
2013-03-14 04:53:00,29.8,18.2,30.30,North,-999,-999.0,-999.0,58,-99.99,,,-99.99,WSDL version 423,2013-03-14 09:53:00,
2013-03-14 04:56:00,29.6,18.1,30.30,North,-999,-999.0,-999.0,58,-99.99,,,-99.99,WSDL version 423,2013-03-14 09:56:00,
2013-03-14 04:58:00,29.4,17.9,30.30,North,-999,-999.0,-999.0,58,-99.99,,,-99.99,WSDL version 423,2013-03-14 09:58:00,
2013-03-14 05:02:00,29.1,17.8,30.30,North,-999,-999.0,-999.0,59,-99.99,,,-99.99,WSDL version 423,2013-03-14 10:02:00,
2013-03-14 05:03:00,29.1,17.8,30.30,North,-999,-999.0,-999.0,59,-99.99,,,-99.99,WSDL version 423,2013-03-14 10:03:00,
2013-03-14 05:04:00,29.0,17.8,30.30,North,-999,-999.0,-999.0,59,-99.99,,,-99.99,WSDL version 423,2013-03-14 10:04:00,
2013-03-14 05:06:00,28.7,17.5,30.30,North,-999,-999.0,-999.0,59,-99.99,,,-99.99,WSDL version 423,2013-03-14 10:06:00,
2013-03-14 05:09:00,28.6,17.4,30.30,North,-999,-999.0,-999.0,59,-99.99,,,-99.99,WSDL version 423,2013-03-14 10:09:00,
2013-03-14 05:10:00,28.6,17.4,30.30,North,-999,-999.0,-999.0,59,-99.99,,,-99.99,WSDL version 423,2013-03-14 10:10:00,
2013-03-14 05:13:00,28.6,17.4,30.30,North,-999,-999.0,-999.0,59,-99.99,,,-99.99,WSDL version 423,2013-03-14 10:13:00,
2013-03-14 05:16:00,28.6,17.4,30.30,North,-999,-999.0,-999.0,59,-99.99,,,-99.99,WSDL version 423,2013-03-14 10:16:00,
2013-03-14 05:17:00,28.6,17.5,30.30,North,-999,-999.0,-999.0,60,-99.99,,,-99.99,WSDL version 423,2013-03-14 10:17:00,
2013-03-14 05:18:00,28.6,17.5,30.30,North,-999,-999.0,-999.0,60,-99.99,,,-99.99,WSDL version 423,2013-03-14 10:18:00,
2013-03-14 05:19:00,28.6,17.6,30.30,North,-999,-999.0,-999.0,60,-99.99,,,-99.99,WSDL version 423,2013-03-14 10:19:00,
2013-03-14 05:21:00,28.6,17.7,30.30,North,-999,-999.0,-999.0,60,-99.99,,,-99.99,WSDL version 423,2013-03-14 10:21:00,
2013-03-14 05:23:00,28.6,17.7,30.30,North,-999,-999.0,-999.0,60,-99.99,,,-99.99,WSDL version 423,2013-03-14 10:23:00,
2013-03-14 05:25:00,28.5,17.7,30.30,North,-999,-999.0,-999.0,60,-99.99,,,-99.99,WSDL version 423,2013-03-14 10:25:00,
2013-03-14 05:26:00,28.5,17.6,30.30,North,-999,-999.0,-999.0,60,-99.99,,,-99.99,WSDL version 423,2013-03-14 10:26:00,
2013-03-14 05:30:00,28.4,17.5,30.30,North,-999,-999.0,-999.0,60,-99.99,,,-99.99,WSDL version 423,2013-03-14 10:30:00,
2013-03-14 05:31:00,28.4,17.5,30.30,North,-999,-999.0,-999.0,60,-99.99,,,-99.99,WSDL version 423,2013-03-14 10:31:00,
2013-03-14 05:33:00,28.4,17.5,30.30,North,-999,-999.0,-999.0,60,-99.99,,,-99.99,WSDL version 423,2013-03-14 10:33:00,
2013-03-14 05:36:00,28.4,17.5,30.30,North,-999,-999.0,-999.0,60,-99.99,,,-99.99,WSDL version 423,2013-03-14 10:36:00,
2013-03-14 05:37:00,28.4,17.5,30.30,North,-999,-999.0,-999.0,60,-99.99,,,-99.99,WSDL version 423,2013-03-14 10:37:00,
2013-03-14 05:40:00,28.4,17.7,30.30,North,-999,-999.0,-999.0,61,-99.99,,,-99.99,WSDL version 423,2013-03-14 10:40:00,
2013-03-14 05:41:00,28.4,17.8,30.30,North,-999,-999.0,-999.0,61,-99.99,,,-99.99,WSDL version 423,2013-03-14 10:41:00,
2013-03-14 05:43:00,28.4,17.8,30.30,North,-999,-999.0,-999.0,60,-99.99,,,-99.99,WSDL version 423,2013-03-14 10:43:00,
2013-03-14 05:48:00,28.5,17.6,30.30,North,-999,-999.0,-999.0,60,-99.99,,,-99.99,WSDL version 423,2013-03-14 10:48:00,
2013-03-14 05:49:00,28.5,17.6,30.30,North,-999,-999.0,-999.0,60,-99.99,,,-99.99,WSDL version 423,2013-03-14 10:49:00,
2013-03-14 05:52:00,28.6,17.7,30.30,North,-999,-999.0,-999.0,60,-99.99,,,-99.99,WSDL version 423,2013-03-14 10:52:00,
2013-03-14 05:54:00,28.6,17.7,30.30,North,-999,-999.0,-999.0,60,-99.99,,,-99.99,WSDL version 423,2013-03-14 10:54:00,
2013-03-14 05:55:00,28.6,17.7,30.30,North,-999,-999.0,-999.0,60,-99.99,,,-99.99,WSDL version 423,2013-03-14 10:55:00,
2013-03-14 05:59:00,28.7,17.9,30.30,North,-999,-999.0,-999.0,60,-99.99,,,-99.99,WSDL version 423,2013-03-14 10:59:00,
2013-03-14 06:00:00,28.7,17.9,30.30,North,-999,-999.0,-999.0,61,-99.99,,,-99.99,WSDL version 423,2013-03-14 11:00:00,
2013-03-14 06:01:00,28.7,18.0,30.30,North,-999,-999.0,-999.0,61,-99.99,,,-99.99,WSDL version 423,2013-03-14 11:01:00,
2013-03-14 06:04:00,28.7,18.1,30.30,North,-999,-999.0,-999.0,60,-99.99,,,-99.99,WSDL version 423,2013-03-14 11:04:00,
2013-03-14 06:05:00,28.7,18.1,30.30,North,-999,-999.0,-999.0,60,-99.99,,,-99.99,WSDL version 423,2013-03-14 11:05:00,
2013-03-14 06:06:00,28.7,17.9,30.30,North,-999,-999.0,-999.0,60,-99.99,,,-99.99,WSDL version 423,2013-03-14 11:06:00,
2013-03-14 06:09:00,28.7,17.9,30.30,North,-999,-999.0,-999.0,60,-99.99,,,-99.99,WSDL version 423,2013-03-14 11:09:00,
2013-03-14 06:10:00,28.7,17.9,30.30,North,-999,-999.0,-999.0,60,-99.99,,,-99.99,WSDL version 423,2013-03-14 11:10:00,
2013-03-14 06:11:00,28.7,17.9,30.30,North,-999,-999.0,-999.0,60,-99.99,,,-99.99,WSDL version 423,2013-03-14 11:11:00,
2013-03-14 06:12:00,28.7,17.9,30.30,North,-999,-999.0,-999.0,60,-99.99,,,-99.99,WSDL version 423,2013-03-14 11:12:00,
2013-03-14 06:15:00,28.7,18.0,30.30,North,-999,-999.0,-999.0,61,-99.99,,,-99.99,WSDL version 423,2013-03-14 11:15:00,
2013-03-14 06:17:00,28.7,18.1,30.30,North,-999,-999.0,-999.0,61,-99.99,,,-99.99,WSDL version 423,2013-03-14 11:17:00,
2013-03-14 06:18:00,28.8,18.2,30.30,North,-999,-999.0,-999.0,61,-99.99,,,-99.99,WSDL version 423,2013-03-14 11:18:00,
2013-03-14 06:20:00,28.8,18.2,30.30,North,-999,-999.0,-999.0,61,-99.99,,,-99.99,WSDL version 423,2013-03-14 11:20:00,
2013-03-14 06:23:00,28.7,18.0,30.30,North,-999,-999.0,-999.0,60,-99.99,,,-99.99,WSDL version 423,2013-03-14 11:23:00,
2013-03-14 06:24:00,28.7,17.9,30.30,North,-999,-999.0,-999.0,60,-99.99,,,-99.99,WSDL version 423,2013-03-14 11:24:00,
2013-03-14 06:25:00,28.7,17.9,30.30,North,-999,-999.0,-999.0,60,-99.99,,,-99.99,WSDL version 423,2013-03-14 11:25:00,
2013-03-14 06:28:00,28.7,17.9,30.30,North,-999,-999.0,-999.0,60,-99.99,,,-99.99,WSDL version 423,2013-03-14 11:28:00,
2013-03-14 06:29:00,28.7,17.9,30.30,North,-999,-999.0,-999.0,61,-99.99,,,-99.99,WSDL version 423,2013-03-14 11:29:00,
2013-03-14 06:30:00,28.7,18.0,30.30,North,-999,-999.0,-999.0,61,-99.99,,,-99.99,WSDL version 423,2013-03-14 11:30:00,
2013-03-14 06:34:00,28.7,17.9,30.30,North,-999,-999.0,-999.0,60,-99.99,,,-99.99,WSDL version 423,2013-03-14 11:34:00,
2013-03-14 06:35:00,28.7,17.9,30.30,North,-999,-999.0,-999.0,60,-99.99,,,-99.99,WSDL version 423,2013-03-14 11:35:00,
2013-03-14 06:37:00,28.7,17.9,30.30,North,-999,-999.0,-999.0,60,-99.99,,,-99.99,WSDL version 423,2013-03-14 11:37:00,
2013-03-14 06:38:00,28.7,17.9,30.30,North,-999,-999.0,-999.0,60,-99.99,,,-99.99,WSDL version 423,2013-03-14 11:38:00,
2013-03-14 06:40:00,28.7,17.9,30.30,North,-999,-999.0,-999.0,60,-99.99,,,-99.99,WSDL version 423,2013-03-14 11:40:00,
2013-03-14 06:42:00,28.7,17.9,30.30,North,-999,-999.0,-999.0,60,-99.99,,,-99.99,WSDL version 423,2013-03-14 11:42:00,
2013-03-14 06:43:00,28.7,17.9,30.30,North,-999,-999.0,-999.0,60,-99.99,,,-99.99,WSDL version 423,2013-03-14 11:43:00,
2013-03-14 06:44:00,28.7,17.9,30.30,North,-999,-999.0,-999.0,60,-99.99,,,-99.99,WSDL version 423,2013-03-14 11:44:00,
2013-03-14 06:45:00,28.7,17.9,30.30,North,-999,-999.0,-999.0,60,-99.99,,,-99.99,WSDL version 423,2013-03-14 11:45:00,
2013-03-14 06:48:00,28.7,17.9,30.30,North,-999,-999.0,-999.0,60,-99.99,,,-99.99,WSDL version 423,2013-03-14 11:48:00,
2013-03-14 06:49:00,28.7,17.9,30.30,North,-999,-999.0,-999.0,60,-99.99,,,-99.99,WSDL version 423,2013-03-14 11:49:00,
2013-03-14 06:53:00,28.7,17.8,30.30,North,-999,-999.0,-999.0,60,-99.99,,,-99.99,WSDL version 423,2013-03-14 11:53:00,
2013-03-14 06:54:00,28.7,17.8,30.30,North,-999,-999.0,-999.0,60,-99.99,,,-99.99,WSDL version 423,2013-03-14 11:54:00,
2013-03-14 06:57:00,28.6,17.7,30.30,North,-999,-999.0,-999.0,60,-99.99,,,-99.99,WSDL version 423,2013-03-14 11:57:00,
2013-03-14 07:00:00,28.6,17.7,30.30,North,-999,-999.0,-999.0,60,-99.99,,,-99.99,WSDL version 423,2013-03-14 12:00:00,
2013-03-14 07:03:00,28.5,17.6,30.30,North,-999,-999.0,-999.0,60,-99.99,,,-99.99,WSDL version 423,2013-03-14 12:03:00,
2013-03-14 07:04:00,28.5,17.6,30.30,North,-999,-999.0,-999.0,60,-99.99,,,-99.99,WSDL version 423,2013-03-14 12:04:00,
2013-03-14 07:06:00,28.3,17.5,30.30,North,-999,-999.0,-999.0,60,-99.99,,,-99.99,WSDL version 423,2013-03-14 12:06:00,
2013-03-14 07:08:00,28.3,17.4,30.30,North,-999,-999.0,-999.0,60,-99.99,,,-99.99,WSDL version 423,2013-03-14 12:08:00,
2013-03-14 07:09:00,28.2,17.3,30.30,North,-999,-999.0,-999.0,60,-99.99,,,-99.99,WSDL version 423,2013-03-14 12:09:00,
2013-03-14 07:11:00,28.1,17.2,30.30,North,-999,-999.0,-999.0,60,-99.99,,,-99.99,WSDL version 423,2013-03-14 12:11:00,
2013-03-14 07:14:00,27.9,17.2,30.30,North,-999,-999.0,-999.0,61,-99.99,,,-99.99,WSDL version 423,2013-03-14 12:14:00,
2013-03-14 07:16:00,27.9,17.3,30.30,North,-999,-999.0,-999.0,61,-99.99,,,-99.99,WSDL version 423,2013-03-14 12:16:00,
2013-03-14 07:19:00,27.9,17.3,30.30,North,-999,-999.0,-999.0,61,-99.99,,,-99.99,WSDL version 423,2013-03-14 12:19:00,
2013-03-14 07:23:00,28.0,17.5,30.30,North,-999,-999.0,-999.0,61,-99.99,,,-99.99,WSDL version 423,2013-03-14 12:23:00,
2013-03-14 07:24:00,28.1,17.5,30.30,North,-999,-999.0,-999.0,61,-99.99,,,-99.99,WSDL version 423,2013-03-14 12:24:00,
2013-03-14 07:26:00,28.1,17.6,30.30,North,-999,-999.0,-999.0,61,-99.99,,,-99.99,WSDL version 423,2013-03-14 12:26:00,
2013-03-14 07:27:00,28.2,17.7,30.30,North,-999,-999.0,-999.0,61,-99.99,,,-99.99,WSDL version 423,2013-03-14 12:27:00,
2013-03-14 07:29:00,28.3,17.7,30.30,North,-999,-999.0,-999.0,61,-99.99,,,-99.99,WSDL version 423,2013-03-14 12:29:00,
2013-03-14 07:31:00,28.5,17.9,30.30,North,-999,-999.0,-999.0,61,-99.99,,,-99.99,WSDL version 423,2013-03-14 12:31:00,
2013-03-14 07:32:00,28.5,18.0,30.30,North,-999,-999.0,-999.0,61,-99.99,,,-99.99,WSDL version 423,2013-03-14 12:32:00,
2013-03-14 07:34:00,28.7,18.2,30.30,North,-999,-999.0,-999.0,62,-99.99,,,-99.99,WSDL version 423,2013-03-14 12:34:00,
2013-03-14 07:35:00,28.7,18.3,30.30,North,-999,-999.0,-999.0,62,-99.99,,,-99.99,WSDL version 423,2013-03-14 12:35:00,
2013-03-14 07:38:00,29.0,18.7,30.30,North,-999,-999.0,-999.0,62,-99.99,,,-99.99,WSDL version 423,2013-03-14 12:38:00,
2013-03-14 07:40:00,29.1,18.9,30.30,North,-999,-999.0,-999.0,62,-99.99,,,-99.99,WSDL version 423,2013-03-14 12:40:00,
2013-03-14 07:41:00,29.2,18.9,30.30,North,-999,-999.0,-999.0,62,-99.99,,,-99.99,WSDL version 423,2013-03-14 12:41:00,
2013-03-14 07:46:00,29.5,19.2,30.30,North,-999,-999.0,-999.0,62,-99.99,,,-99.99,WSDL version 423,2013-03-14 12:46:00,
2013-03-14 07:47:00,29.6,19.3,30.30,North,-999,-999.0,-999.0,62,-99.99,,,-99.99,WSDL version 423,2013-03-14 12:47:00,
2013-03-14 07:51:00,30.1,19.7,30.30,North,-999,-999.0,-999.0,62,-99.99,,,-99.99,WSDL version 423,2013-03-14 12:51:00,
2013-03-14 07:52:00,30.2,19.9,30.30,North,-999,-999.0,-999.0,62,-99.99,,,-99.99,WSDL version 423,2013-03-14 12:52:00,
2013-03-14 07:57:00,30.7,20.3,30.30,North,-999,-999.0,-999.0,62,-99.99,,,-99.99,WSDL version 423,2013-03-14 12:57:00,
2013-03-14 07:58:00,30.8,20.4,30.30,North,-999,-999.0,-999.0,62,-99.99,,,-99.99,WSDL version 423,2013-03-14 12:58:00,
2013-03-14 08:01:00,31.1,20.8,30.30,North,-999,-999.0,-999.0,62,-99.99,,,-99.99,WSDL version 423,2013-03-14 13:01:00,
2013-03-14 08:02:00,31.2,20.9,30.30,North,-999,-999.0,-999.0,62,-99.99,,,-99.99,WSDL version 423,2013-03-14 13:02:00,
2013-03-14 08:04:00,31.4,21.1,30.30,North,-999,-999.0,-999.0,62,-99.99,,,-99.99,WSDL version 423,2013-03-14 13:04:00,
2013-03-14 08:05:00,31.6,21.2,30.30,North,-999,-999.0,-999.0,62,-99.99,,,-99.99,WSDL version 423,2013-03-14 13:05:00,
2013-03-14 08:07:00,32.0,21.1,30.30,North,-999,-999.0,-999.0,62,-99.99,,,-99.99,WSDL version 423,2013-03-14 13:07:00,
2013-03-14 08:09:00,32.3,20.9,30.30,North,-999,-999.0,-999.0,62,-99.99,,,-99.99,WSDL version 423,2013-03-14 13:09:00,
2013-03-14 08:10:00,32.6,20.7,30.30,North,-999,-999.0,-999.0,61,-99.99,,,-99.99,WSDL version 423,2013-03-14 13:10:00,
2013-03-14 08:13:00,33.1,21.1,30.30,North,-999,-999.0,-999.0,61,-99.99,,,-99.99,WSDL version 423,2013-03-14 13:13:00,
2013-03-14 08:14:00,33.2,21.1,30.30,North,-999,-999.0,-999.0,61,-99.99,,,-99.99,WSDL version 423,2013-03-14 13:14:00,
2013-03-14 08:16:00,33.6,21.3,30.30,North,-999,-999.0,-999.0,60,-99.99,,,-99.99,WSDL version 423,2013-03-14 13:16:00,
2013-03-14 08:20:00,34.4,21.7,30.30,North,-999,-999.0,-999.0,59,-99.99,,,-99.99,WSDL version 423,2013-03-14 13:20:00,
2013-03-14 08:21:00,34.5,21.8,30.30,North,-999,-999.0,-999.0,59,-99.99,,,-99.99,WSDL version 423,2013-03-14 13:21:00,
2013-03-14 08:22:00,34.7,21.9,30.30,North,-999,-999.0,-999.0,59,-99.99,,,-99.99,WSDL version 423,2013-03-14 13:22:00,
2013-03-14 08:26:00,35.2,22.2,30.30,North,-999,-999.0,-999.0,58,-99.99,,,-99.99,WSDL version 423,2013-03-14 13:26:00,
2013-03-14 08:27:00,35.3,22.2,30.30,North,-999,-999.0,-999.0,58,-99.99,,,-99.99,WSDL version 423,2013-03-14 13:27:00,
2013-03-14 08:28:00,35.4,22.2,30.30,North,-999,-999.0,-999.0,58,-99.99,,,-99.99,WSDL version 423,2013-03-14 13:28:00,
2013-03-14 08:31:00,35.6,22.2,30.30,North,-999,-999.0,-999.0,57,-99.99,,,-99.99,WSDL version 423,2013-03-14 13:31:00,
2013-03-14 08:33:00,35.7,22.0,30.30,North,-999,-999.0,-999.0,57,-99.99,,,-99.99,WSDL version 423,2013-03-14 13:33:00,
2013-03-14 08:34:00,35.7,21.9,30.30,North,-999,-999.0,-999.0,56,-99.99,,,-99.99,WSDL version 423,2013-03-14 13:34:00,
2013-03-14 08:38:00,35.8,21.7,30.30,North,-999,-999.0,-999.0,56,-99.99,,,-99.99,WSDL version 423,2013-03-14 13:38:00,
2013-03-14 08:40:00,35.9,21.7,30.30,North,-999,-999.0,-999.0,56,-99.99,,,-99.99,WSDL version 423,2013-03-14 13:40:00,
2013-03-14 08:42:00,35.9,21.8,30.30,North,-999,-999.0,-999.0,56,-99.99,,,-99.99,WSDL version 423,2013-03-14 13:42:00,
2013-03-14 08:43:00,35.9,21.7,30.30,North,-999,-999.0,-999.0,55,-99.99,,,-99.99,WSDL version 423,2013-03-14 13:43:00,
2013-03-14 08:45:00,35.9,21.6,30.30,North,-999,-999.0,-999.0,55,-99.99,,,-99.99,WSDL version 423,2013-03-14 13:45:00,
2013-03-14 08:48:00,36.0,21.3,30.30,North,-999,-999.0,-999.0,55,-99.99,,,-99.99,WSDL version 423,2013-03-14 13:48:00,
2013-03-14 08:49:00,36.0,21.4,30.30,North,-999,-999.0,-999.0,55,-99.99,,,-99.99,WSDL version 423,2013-03-14 13:49:00,
2013-03-14 08:51:00,36.1,21.4,30.30,North,-999,-999.0,-999.0,55,-99.99,,,-99.99,WSDL version 423,2013-03-14 13:51:00,
2013-03-14 08:53:00,36.1,21.6,30.30,North,-999,-999.0,-999.0,55,-99.99,,,-99.99,WSDL version 423,2013-03-14 13:53:00,
2013-03-14 08:54:00,36.1,21.6,30.30,North,-999,-999.0,-999.0,55,-99.99,,,-99.99,WSDL version 423,2013-03-14 13:54:00,
2013-03-14 08:56:00,36.2,21.5,30.30,North,-999,-999.0,-999.0,54,-99.99,,,-99.99,WSDL version 423,2013-03-14 13:56:00,
2013-03-14 09:00:00,36.3,21.4,30.30,North,-999,-999.0,-999.0,54,-99.99,,,-99.99,WSDL version 423,2013-03-14 14:00:00,
2013-03-14 09:01:00,36.3,21.4,30.30,North,-999,-999.0,-999.0,54,-99.99,,,-99.99,WSDL version 423,2013-03-14 14:01:00,
2013-03-14 09:02:00,36.3,21.4,30.30,North,-999,-999.0,-999.0,54,-99.99,,,-99.99,WSDL version 423,2013-03-14 14:02:00,
2013-03-14 09:04:00,36.4,21.4,30.30,North,-999,-999.0,-999.0,54,-99.99,,,-99.99,WSDL version 423,2013-03-14 14:04:00,
2013-03-14 09:07:00,36.5,21.5,30.30,North,-999,-999.0,-999.0,54,-99.99,,,-99.99,WSDL version 423,2013-03-14 14:07:00,
2013-03-14 09:08:00,36.6,21.6,30.30,North,-999,-999.0,-999.0,54,-99.99,,,-99.99,WSDL version 423,2013-03-14 14:08:00,
2013-03-14 09:10:00,36.6,21.7,30.30,North,-999,-999.0,-999.0,54,-99.99,,,-99.99,WSDL version 423,2013-03-14 14:10:00,
2013-03-14 09:14:00,36.8,21.8,30.30,North,-999,-999.0,-999.0,53,-99.99,,,-99.99,WSDL version 423,2013-03-14 14:14:00,
2013-03-14 09:15:00,36.9,21.8,30.33,North,-999,-999.0,-999.0,53,-99.99,,,-99.99,WSDL version 423,2013-03-14 14:15:00,
2013-03-14 09:16:00,36.9,21.8,30.33,North,-999,-999.0,-999.0,54,-99.99,,,-99.99,WSDL version 423,2013-03-14 14:16:00,
2013-03-14 09:18:00,37.1,22.0,30.33,North,-999,-999.0,-999.0,54,-99.99,,,-99.99,WSDL version 423,2013-03-14 14:18:00,
2013-03-14 09:21:00,37.3,22.2,30.33,North,-999,-999.0,-999.0,53,-99.99,,,-99.99,WSDL version 423,2013-03-14 14:21:00,
2013-03-14 09:22:00,37.3,22.2,30.33,North,-999,-999.0,-999.0,53,-99.99,,,-99.99,WSDL version 423,2013-03-14 14:22:00,
2013-03-14 09:24:00,37.4,22.1,30.33,North,-999,-999.0,-999.0,53,-99.99,,,-99.99,WSDL version 423,2013-03-14 14:24:00,
2013-03-14 09:25:00,37.5,21.9,30.33,North,-999,-999.0,-999.0,52,-99.99,,,-99.99,WSDL version 423,2013-03-14 14:25:00,
2013-03-14 09:27:00,37.5,21.8,30.33,North,-999,-999.0,-999.0,52,-99.99,,,-99.99,WSDL version 423,2013-03-14 14:27:00,
2013-03-14 09:28:00,37.5,21.8,30.33,North,-999,-999.0,-999.0,52,-99.99,,,-99.99,WSDL version 423,2013-03-14 14:28:00,
2013-03-14 09:32:00,37.7,21.9,30.33,North,-999,-999.0,-999.0,52,-99.99,,,-99.99,WSDL version 423,2013-03-14 14:32:00,
2013-03-14 09:33:00,37.8,21.8,30.33,North,-999,-999.0,-999.0,52,-99.99,,,-99.99,WSDL version 423,2013-03-14 14:33:00,
2013-03-14 09:37:00,38.0,21.5,30.33,North,-999,-999.0,-999.0,51,-99.99,,,-99.99,WSDL version 423,2013-03-14 14:37:00,
2013-03-14 09:39:00,38.1,21.4,30.33,North,-999,-999.0,-999.0,51,-99.99,,,-99.99,WSDL version 423,2013-03-14 14:39:00,
2013-03-14 09:42:00,38.3,21.3,30.33,North,-999,-999.0,-999.0,50,-99.99,,,-99.99,WSDL version 423,2013-03-14 14:42:00,
2013-03-14 09:44:00,38.4,21.3,30.33,North,-999,-999.0,-999.0,50,-99.99,,,-99.99,WSDL version 423,2013-03-14 14:44:00,
2013-03-14 09:46:00,38.5,21.3,30.33,North,-999,-999.0,-999.0,49,-99.99,,,-99.99,WSDL version 423,2013-03-14 14:46:00,
2013-03-14 09:47:00,38.6,21.3,30.33,North,-999,-999.0,-999.0,50,-99.99,,,-99.99,WSDL version 423,2013-03-14 14:47:00,
2013-03-14 09:52:00,39.0,21.7,30.33,North,-999,-999.0,-999.0,50,-99.99,,,-99.99,WSDL version 423,2013-03-14 14:52:00,
2013-03-14 09:55:00,39.5,22.1,30.33,North,-999,-999.0,-999.0,50,-99.99,,,-99.99,WSDL version 423,2013-03-14 14:55:00,
2013-03-14 09:56:00,39.7,22.1,30.33,North,-999,-999.0,-999.0,48,-99.99,,,-99.99,WSDL version 423,2013-03-14 14:56:00,
2013-03-14 09:57:00,39.7,22.1,30.33,North,-999,-999.0,-999.0,48,-99.99,,,-99.99,WSDL version 423,2013-03-14 14:57:00,
2013-03-14 10:01:00,40.3,22.1,30.30,North,-999,-999.0,-999.0,48,-99.99,,,-99.99,WSDL version 423,2013-03-14 15:01:00,
2013-03-14 10:03:00,40.5,22.0,30.30,North,-999,-999.0,-999.0,46,-99.99,,,-99.99,WSDL version 423,2013-03-14 15:03:00,
2013-03-14 10:04:00,40.6,21.9,30.30,North,-999,-999.0,-999.0,46,-99.99,,,-99.99,WSDL version 423,2013-03-14 15:04:00,
2013-03-14 10:08:00,40.8,21.6,30.30,North,-999,-999.0,-999.0,46,-99.99,,,-99.99,WSDL version 423,2013-03-14 15:08:00,
2013-03-14 10:09:00,40.9,21.7,30.30,North,-999,-999.0,-999.0,46,-99.99,,,-99.99,WSDL version 423,2013-03-14 15:09:00,
2013-03-14 10:10:00,41.0,21.8,30.30,North,-999,-999.0,-999.0,46,-99.99,,,-99.99,WSDL version 423,2013-03-14 15:10:00,
2013-03-14 10:13:00,41.3,22.1,30.30,North,-999,-999.0,-999.0,46,-99.99,,,-99.99,WSDL version 423,2013-03-14 15:13:00,
2013-03-14 10:16:00,41.7,22.3,30.30,North,-999,-999.0,-999.0,45,-99.99,,,-99.99,WSDL version 423,2013-03-14 15:16:00,
2013-03-14 10:19:00,42.0,22.1,30.30,North,-999,-999.0,-999.0,44,-99.99,,,-99.99,WSDL version 423,2013-03-14 15:19:00,
2013-03-14 10:20:00,42.0,22.1,30.30,North,-999,-999.0,-999.0,44,-99.99,,,-99.99,WSDL version 423,2013-03-14 15:20:00,
2013-03-14 10:23:00,42.2,21.9,30.30,North,-999,-999.0,-999.0,44,-99.99,,,-99.99,WSDL version 423,2013-03-14 15:23:00,
2013-03-14 10:26:00,42.3,21.7,30.30,North,-999,-999.0,-999.0,42,-99.99,,,-99.99,WSDL version 423,2013-03-14 15:26:00,
2013-03-14 10:27:00,42.4,21.6,30.30,North,-999,-999.0,-999.0,43,-99.99,,,-99.99,WSDL version 423,2013-03-14 15:27:00,
2013-03-14 10:28:00,42.4,21.5,30.30,North,-999,-999.0,-999.0,43,-99.99,,,-99.99,WSDL version 423,2013-03-14 15:28:00,
2013-03-14 10:31:00,42.6,21.9,30.30,North,-999,-999.0,-999.0,43,-99.99,,,-99.99,WSDL version 423,2013-03-14 15:31:00,
2013-03-14 10:32:00,42.8,22.1,30.30,North,-999,-999.0,-999.0,44,-99.99,,,-99.99,WSDL version 423,2013-03-14 15:32:00,
2013-03-14 10:33:00,42.9,22.3,30.30,North,-999,-999.0,-999.0,44,-99.99,,,-99.99,WSDL version 423,2013-03-14 15:33:00,
2013-03-14 10:34:00,43.0,22.3,30.30,North,-999,-999.0,-999.0,43,-99.99,,,-99.99,WSDL version 423,2013-03-14 15:34:00,
2013-03-14 10:38:00,43.4,21.9,30.30,North,-999,-999.0,-999.0,41,-99.99,,,-99.99,WSDL version 423,2013-03-14 15:38:00,
2013-03-14 10:39:00,43.6,21.8,30.30,North,-999,-999.0,-999.0,41,-99.99,,,-99.99,WSDL version 423,2013-03-14 15:39:00,
2013-03-14 10:40:00,43.6,21.7,30.30,North,-999,-999.0,-999.0,41,-99.99,,,-99.99,WSDL version 423,2013-03-14 15:40:00,
2013-03-14 10:41:00,43.7,21.7,30.30,North,-999,-999.0,-999.0,41,-99.99,,,-99.99,WSDL version 423,2013-03-14 15:41:00,
2013-03-14 10:44:00,44.0,20.6,30.30,North,-999,-999.0,-999.0,38,-99.99,,,-99.99,WSDL version 423,2013-03-14 15:44:00,
2013-03-14 10:46:00,44.2,20.2,30.30,North,-999,-999.0,-999.0,38,-99.99,,,-99.99,WSDL version 423,2013-03-14 15:46:00,
2013-03-14 10:48:00,44.3,20.1,30.30,North,-999,-999.0,-999.0,37,-99.99,,,-99.99,WSDL version 423,2013-03-14 15:48:00,
2013-03-14 10:51:00,44.3,19.8,30.30,North,-999,-999.0,-999.0,37,-99.99,,,-99.99,WSDL version 423,2013-03-14 15:51:00,
2013-03-14 10:53:00,44.4,19.7,30.30,North,-999,-999.0,-999.0,37,-99.99,,,-99.99,WSDL version 423,2013-03-14 15:53:00,
2013-03-14 10:55:00,44.7,19.9,30.30,North,-999,-999.0,-999.0,37,-99.99,,,-99.99,WSDL version 423,2013-03-14 15:55:00,
2013-03-14 10:57:00,45.3,20.5,30.30,North,-999,-999.0,-999.0,37,-99.99,,,-99.99,WSDL version 423,2013-03-14 15:57:00,
2013-03-14 11:00:00,45.8,20.8,30.30,North,-999,-999.0,-999.0,36,-99.99,,,-99.99,WSDL version 423,2013-03-14 16:00:00,
2013-03-14 11:01:00,46.0,20.8,30.30,North,-999,-999.0,-999.0,36,-99.99,,,-99.99,WSDL version 423,2013-03-14 16:01:00,
2013-03-14 11:05:00,46.8,21.3,30.30,North,-999,-999.0,-999.0,36,-99.99,,,-99.99,WSDL version 423,2013-03-14 16:05:00,
2013-03-14 11:08:00,48.1,22.2,30.30,North,-999,-999.0,-999.0,35,-99.99,,,-99.99,WSDL version 423,2013-03-14 16:08:00,
2013-03-14 11:10:00,49.0,22.7,30.30,North,-999,-999.0,-999.0,35,-99.99,,,-99.99,WSDL version 423,2013-03-14 16:10:00,
2013-03-14 11:11:00,49.4,23.0,30.30,North,-999,-999.0,-999.0,35,-99.99,,,-99.99,WSDL version 423,2013-03-14 16:11:00,
2013-03-14 11:12:00,49.7,23.2,30.30,North,-999,-999.0,-999.0,35,-99.99,,,-99.99,WSDL version 423,2013-03-14 16:12:00,
2013-03-14 11:13:00,50.0,23.4,30.30,North,-999,-999.0,-999.0,35,-99.99,,,-99.99,WSDL version 423,2013-03-14 16:13:00,
2013-03-14 11:16:00,49.8,22.8,30.30,North,-999,-999.0,-999.0,34,-99.99,,,-99.99,WSDL version 423,2013-03-14 16:16:00,
2013-03-14 11:17:00,49.4,22.4,30.30,North,-999,-999.0,-999.0,34,-99.99,,,-99.99,WSDL version 423,2013-03-14 16:17:00,
2013-03-14 11:18:00,49.2,22.0,30.30,North,-999,-999.0,-999.0,34,-99.99,,,-99.99,WSDL version 423,2013-03-14 16:18:00,
2013-03-14 11:22:00,47.9,20.9,30.30,North,-999,-999.0,-999.0,34,-99.99,,,-99.99,WSDL version 423,2013-03-14 16:22:00,
2013-03-14 11:24:00,47.8,20.8,30.30,North,-999,-999.0,-999.0,34,-99.99,,,-99.99,WSDL version 423,2013-03-14 16:24:00,
2013-03-14 11:26:00,47.7,20.7,30.30,North,-999,-999.0,-999.0,34,-99.99,,,-99.99,WSDL version 423,2013-03-14 16:26:00,
2013-03-14 11:29:00,47.4,20.4,30.30,North,-999,-999.0,-999.0,34,-99.99,,,-99.99,WSDL version 423,2013-03-14 16:29:00,
2013-03-14 11:30:00,47.3,20.4,30.30,North,-999,-999.0,-999.0,34,-99.99,,,-99.99,WSDL version 423,2013-03-14 16:30:00,
2013-03-14 11:32:00,47.2,20.3,30.30,North,-999,-999.0,-999.0,34,-99.99,,,-99.99,WSDL version 423,2013-03-14 16:32:00,
2013-03-14 11:34:00,47.2,20.2,30.30,North,-999,-999.0,-999.0,34,-99.99,,,-99.99,WSDL version 423,2013-03-14 16:34:00,
2013-03-14 11:35:00,47.2,20.3,30.30,North,-999,-999.0,-999.0,34,-99.99,,,-99.99,WSDL version 423,2013-03-14 16:35:00,
2013-03-14 11:36:00,47.3,20.4,30.30,North,-999,-999.0,-999.0,34,-99.99,,,-99.99,WSDL version 423,2013-03-14 16:36:00,
2013-03-14 11:38:00,47.5,20.6,30.30,North,-999,-999.0,-999.0,34,-99.99,,,-99.99,WSDL version 423,2013-03-14 16:38:00,
2013-03-14 11:39:00,47.6,20.6,30.30,North,-999,-999.0,-999.0,34,-99.99,,,-99.99,WSDL version 423,2013-03-14 16:39:00,
2013-03-14 11:44:00,47.5,20.5,30.30,North,-999,-999.0,-999.0,34,-99.99,,,-99.99,WSDL version 423,2013-03-14 16:44:00,
2013-03-14 11:45:00,47.5,20.5,30.30,North,-999,-999.0,-999.0,34,-99.99,,,-99.99,WSDL version 423,2013-03-14 16:45:00,
2013-03-14 11:47:00,47.4,20.4,30.30,North,-999,-999.0,-999.0,34,-99.99,,,-99.99,WSDL version 423,2013-03-14 16:47:00,
2013-03-14 11:49:00,47.4,20.4,30.30,North,-999,-999.0,-999.0,34,-99.99,,,-99.99,WSDL version 423,2013-03-14 16:49:00,
2013-03-14 11:51:00,47.4,20.4,30.30,North,-999,-999.0,-999.0,34,-99.99,,,-99.99,WSDL version 423,2013-03-14 16:51:00,
2013-03-14 11:52:00,47.4,20.5,30.30,North,-999,-999.0,-999.0,34,-99.99,,,-99.99,WSDL version 423,2013-03-14 16:52:00,
2013-03-14 11:54:00,47.6,20.6,30.30,North,-999,-999.0,-999.0,34,-99.99,,,-99.99,WSDL version 423,2013-03-14 16:54:00,
2013-03-14 11:55:00,47.7,20.8,30.30,North,-999,-999.0,-999.0,34,-99.99,,,-99.99,WSDL version 423,2013-03-14 16:55:00,
2013-03-14 11:56:00,47.9,20.9,30.30,North,-999,-999.0,-999.0,34,-99.99,,,-99.99,WSDL version 423,2013-03-14 16:56:00,
2013-03-14 11:59:00,48.3,21.3,30.30,North,-999,-999.0,-999.0,34,-99.99,,,-99.99,WSDL version 423,2013-03-14 16:59:00,
2013-03-14 12:00:00,48.4,21.4,30.30,North,-999,-999.0,-999.0,34,-99.99,,,-99.99,WSDL version 423,2013-03-14 17:00:00,
2013-03-14 12:01:00,48.5,21.4,30.30,North,-999,-999.0,-999.0,34,-99.99,,,-99.99,WSDL version 423,2013-03-14 17:01:00,
2013-03-14 12:04:00,48.6,21.5,30.30,North,-999,-999.0,-999.0,34,-99.99,,,-99.99,WSDL version 423,2013-03-14 17:04:00,
2013-03-14 12:05:00,48.6,21.5,30.30,North,-999,-999.0,-999.0,34,-99.99,,,-99.99,WSDL version 423,2013-03-14 17:05:00,
2013-03-14 12:06:00,48.7,21.5,30.30,North,-999,-999.0,-999.0,33,-99.99,,,-99.99,WSDL version 423,2013-03-14 17:06:00,
2013-03-14 12:07:00,48.7,21.5,30.30,North,-999,-999.0,-999.0,33,-99.99,,,-99.99,WSDL version 423,2013-03-14 17:07:00,
2013-03-14 12:10:00,48.8,21.5,30.30,North,-999,-999.0,-999.0,34,-99.99,,,-99.99,WSDL version 423,2013-03-14 17:10:00,
2013-03-14 12:11:00,48.7,21.6,30.30,North,-999,-999.0,-999.0,34,-99.99,,,-99.99,WSDL version 423,2013-03-14 17:11:00,
2013-03-14 12:13:00,48.7,21.6,30.30,North,-999,-999.0,-999.0,34,-99.99,,,-99.99,WSDL version 423,2013-03-14 17:13:00,
2013-03-14 12:15:00,48.7,21.6,30.30,North,-999,-999.0,-999.0,34,-99.99,,,-99.99,WSDL version 423,2013-03-14 17:15:00,
2013-03-14 12:18:00,49.0,21.4,30.30,North,-999,-999.0,-999.0,33,-99.99,,,-99.99,WSDL version 423,2013-03-14 17:18:00,
2013-03-14 12:20:00,49.3,21.4,30.30,North,-999,-999.0,-999.0,33,-99.99,,,-99.99,WSDL version 423,2013-03-14 17:20:00,
2013-03-14 12:23:00,49.4,21.5,30.30,North,-999,-999.0,-999.0,33,-99.99,,,-99.99,WSDL version 423,2013-03-14 17:23:00,
2013-03-14 12:25:00,49.4,21.5,30.30,North,-999,-999.0,-999.0,33,-99.99,,,-99.99,WSDL version 423,2013-03-14 17:25:00,
2013-03-14 12:27:00,49.3,21.4,30.30,North,-999,-999.0,-999.0,33,-99.99,,,-99.99,WSDL version 423,2013-03-14 17:27:00,
2013-03-14 12:28:00,49.3,21.4,30.30,North,-999,-999.0,-999.0,33,-99.99,,,-99.99,WSDL version 423,2013-03-14 17:28:00,
2013-03-14 12:29:00,49.2,21.4,30.30,North,-999,-999.0,-999.0,33,-99.99,,,-99.99,WSDL version 423,2013-03-14 17:29:00,
2013-03-14 12:33:00,49.2,21.3,30.27,North,-999,-999.0,-999.0,33,-99.99,,,-99.99,WSDL version 423,2013-03-14 17:33:00,
2013-03-14 12:34:00,49.2,21.3,30.27,North,-999,-999.0,-999.0,33,-99.99,,,-99.99,WSDL version 423,2013-03-14 17:34:00,
2013-03-14 12:35:00,49.3,21.5,30.27,North,-999,-999.0,-999.0,33,-99.99,,,-99.99,WSDL version 423,2013-03-14 17:35:00,
2013-03-14 12:36:00,49.4,21.5,30.27,North,-999,-999.0,-999.0,33,-99.99,,,-99.99,WSDL version 423,2013-03-14 17:36:00,
2013-03-14 12:40:00,49.8,21.9,30.27,North,-999,-999.0,-999.0,33,-99.99,,,-99.99,WSDL version 423,2013-03-14 17:40:00,
2013-03-14 12:41:00,49.9,21.9,30.27,North,-999,-999.0,-999.0,33,-99.99,,,-99.99,WSDL version 423,2013-03-14 17:41:00,
2013-03-14 12:43:00,50.0,22.1,30.27,North,-999,-999.0,-999.0,33,-99.99,,,-99.99,WSDL version 423,2013-03-14 17:43:00,
2013-03-14 12:44:00,50.1,22.1,30.27,North,-999,-999.0,-999.0,33,-99.99,,,-99.99,WSDL version 423,2013-03-14 17:44:00,
2013-03-14 12:45:00,50.1,22.1,30.27,North,-999,-999.0,-999.0,33,-99.99,,,-99.99,WSDL version 423,2013-03-14 17:45:00,
2013-03-14 12:47:00,50.2,22.2,30.27,North,-999,-999.0,-999.0,33,-99.99,,,-99.99,WSDL version 423,2013-03-14 17:47:00,
2013-03-14 12:48:00,50.2,22.2,30.27,North,-999,-999.0,-999.0,33,-99.99,,,-99.99,WSDL version 423,2013-03-14 17:48:00,
2013-03-14 12:52:00,50.2,22.2,30.27,North,-999,-999.0,-999.0,33,-99.99,,,-99.99,WSDL version 423,2013-03-14 17:52:00,
2013-03-14 12:53:00,50.2,22.2,30.27,North,-999,-999.0,-999.0,33,-99.99,,,-99.99,WSDL version 423,2013-03-14 17:53:00,
2013-03-14 12:54:00,50.2,22.2,30.27,North,-999,-999.0,-999.0,33,-99.99,,,-99.99,WSDL version 423,2013-03-14 17:54:00,
2013-03-14 12:58:00,50.2,22.2,30.27,North,-999,-999.0,-999.0,33,-99.99,,,-99.99,WSDL version 423,2013-03-14 17:58:00,
2013-03-14 12:59:00,50.2,22.2,30.27,North,-999,-999.0,-999.0,33,-99.99,,,-99.99,WSDL version 423,2013-03-14 17:59:00,
2013-03-14 13:01:00,50.4,22.3,30.27,North,-999,-999.0,-999.0,32,-99.99,,,-99.99,WSDL version 423,2013-03-14 18:01:00,
2013-03-14 13:03:00,50.6,22.3,30.27,North,-999,-999.0,-999.0,33,-99.99,,,-99.99,WSDL version 423,2013-03-14 18:03:00,
2013-03-14 13:05:00,50.6,22.3,30.27,North,-999,-999.0,-999.0,33,-99.99,,,-99.99,WSDL version 423,2013-03-14 18:05:00,
2013-03-14 13:06:00,50.5,22.4,30.27,North,-999,-999.0,-999.0,33,-99.99,,,-99.99,WSDL version 423,2013-03-14 18:06:00,
2013-03-14 13:09:00,50.3,22.3,30.27,North,-999,-999.0,-999.0,33,-99.99,,,-99.99,WSDL version 423,2013-03-14 18:09:00,
2013-03-14 13:11:00,50.1,22.1,30.27,North,-999,-999.0,-999.0,33,-99.99,,,-99.99,WSDL version 423,2013-03-14 18:11:00,
2013-03-14 13:13:00,49.9,21.9,30.27,North,-999,-999.0,-999.0,33,-99.99,,,-99.99,WSDL version 423,2013-03-14 18:13:00,
2013-03-14 13:17:00,49.8,21.5,30.24,North,-999,-999.0,-999.0,33,-99.99,,,-99.99,WSDL version 423,2013-03-14 18:17:00,
2013-03-14 13:18:00,49.9,21.5,30.24,North,-999,-999.0,-999.0,33,-99.99,,,-99.99,WSDL version 423,2013-03-14 18:18:00,
2013-03-14 13:19:00,49.9,22.0,30.24,North,-999,-999.0,-999.0,33,-99.99,,,-99.99,WSDL version 423,2013-03-14 18:19:00,
2013-03-14 13:23:00,49.9,21.1,30.24,North,-999,-999.0,-999.0,30,-99.99,,,-99.99,WSDL version 423,2013-03-14 18:23:00,
2013-03-14 13:24:00,49.8,21.0,30.24,North,-999,-999.0,-999.0,33,-99.99,,,-99.99,WSDL version 423,2013-03-14 18:24:00,
2013-03-14 13:25:00,49.8,20.5,30.24,North,-999,-999.0,-999.0,30,-99.99,,,-99.99,WSDL version 423,2013-03-14 18:25:00,
2013-03-14 13:26:00,49.7,20.5,30.24,North,-999,-999.0,-999.0,33,-99.99,,,-99.99,WSDL version 423,2013-03-14 18:26:00,
2013-03-14 13:29:00,49.7,21.0,30.24,North,-999,-999.0,-999.0,33,-99.99,,,-99.99,WSDL version 423,2013-03-14 18:29:00,
2013-03-14 13:31:00,49.7,21.4,30.27,North,-999,-999.0,-999.0,33,-99.99,,,-99.99,WSDL version 423,2013-03-14 18:31:00,
2013-03-14 13:32:00,49.8,21.5,30.27,North,-999,-999.0,-999.0,33,-99.99,,,-99.99,WSDL version 423,2013-03-14 18:32:00,
2013-03-14 13:33:00,49.8,21.4,30.27,North,-999,-999.0,-999.0,30,-99.99,,,-99.99,WSDL version 423,2013-03-14 18:33:00,
2013-03-14 13:36:00,49.8,21.4,30.27,North,-999,-999.0,-999.0,33,-99.99,,,-99.99,WSDL version 423,2013-03-14 18:36:00,
2013-03-14 13:37:00,49.8,21.4,30.27,North,-999,-999.0,-999.0,33,-99.99,,,-99.99,WSDL version 423,2013-03-14 18:37:00,
2013-03-14 13:42:00,49.7,20.9,30.27,North,-999,-999.0,-999.0,33,-99.99,,,-99.99,WSDL version 423,2013-03-14 18:42:00,
2013-03-14 13:44:00,49.6,21.0,30.27,North,-999,-999.0,-999.0,33,-99.99,,,-99.99,WSDL version 423,2013-03-14 18:44:00,
2013-03-14 13:45:00,49.6,21.3,30.24,North,-999,-999.0,-999.0,33,-99.99,,,-99.99,WSDL version 423,2013-03-14 18:45:00,
2013-03-14 13:49:00,49.5,21.0,30.24,North,-999,-999.0,-999.0,33,-99.99,,,-99.99,WSDL version 423,2013-03-14 18:49:00,
2013-03-14 13:50:00,49.5,21.1,30.24,North,-999,-999.0,-999.0,33,-99.99,,,-99.99,WSDL version 423,2013-03-14 18:50:00,
2013-03-14 13:51:00,49.6,21.3,30.24,North,-999,-999.0,-999.0,33,-99.99,,,-99.99,WSDL version 423,2013-03-14 18:51:00,
2013-03-14 13:54:00,49.7,20.6,30.24,North,-999,-999.0,-999.0,30,-99.99,,,-99.99,WSDL version 423,2013-03-14 18:54:00,
2013-03-14 13:57:00,49.5,19.4,30.24,North,-999,-999.0,-999.0,30,-99.99,,,-99.99,WSDL version 423,2013-03-14 18:57:00,
2013-03-14 14:00:00,49.4,19.3,30.24,North,-999,-999.0,-999.0,30,-99.99,,,-99.99,WSDL version 423,2013-03-14 19:00:00,
2013-03-14 14:01:00,49.4,19.3,30.24,North,-999,-999.0,-999.0,30,-99.99,,,-99.99,WSDL version 423,2013-03-14 19:01:00,
2013-03-14 14:02:00,49.4,19.3,30.24,North,-999,-999.0,-999.0,30,-99.99,,,-99.99,WSDL version 423,2013-03-14 19:02:00,
2013-03-14 14:07:00,49.4,19.2,30.24,North,-999,-999.0,-999.0,30,-99.99,,,-99.99,WSDL version 423,2013-03-14 19:07:00,
2013-03-14 14:08:00,49.3,19.2,30.24,North,-999,-999.0,-999.0,30,-99.99,,,-99.99,WSDL version 423,2013-03-14 19:08:00,
2013-03-14 14:09:00,49.3,19.2,30.24,North,-999,-999.0,-999.0,30,-99.99,,,-99.99,WSDL version 423,2013-03-14 19:09:00,
2013-03-14 14:11:00,49.3,19.1,30.24,North,-999,-999.0,-999.0,30,-99.99,,,-99.99,WSDL version 423,2013-03-14 19:11:00,
2013-03-14 14:16:00,48.8,19.8,30.21,North,-999,-999.0,-999.0,31,-99.99,,,-99.99,WSDL version 423,2013-03-14 19:16:00,
2013-03-14 14:17:00,48.8,19.8,30.21,North,-999,-999.0,-999.0,31,-99.99,,,-99.99,WSDL version 423,2013-03-14 19:17:00,
2013-03-14 14:18:00,48.7,19.9,30.21,North,-999,-999.0,-999.0,31,-99.99,,,-99.99,WSDL version 423,2013-03-14 19:18:00,
2013-03-14 14:21:00,48.5,19.2,30.21,North,-999,-999.0,-999.0,31,-99.99,,,-99.99,WSDL version 423,2013-03-14 19:21:00,
2013-03-14 14:24:00,48.4,19.7,30.21,North,-999,-999.0,-999.0,33,-99.99,,,-99.99,WSDL version 423,2013-03-14 19:24:00,
2013-03-14 14:29:00,48.3,20.5,30.21,North,-999,-999.0,-999.0,33,-99.99,,,-99.99,WSDL version 423,2013-03-14 19:29:00,
2013-03-14 14:30:00,48.3,20.6,30.21,North,-999,-999.0,-999.0,33,-99.99,,,-99.99,WSDL version 423,2013-03-14 19:30:00,
2013-03-14 14:32:00,48.5,20.7,30.21,North,-999,-999.0,-999.0,33,-99.99,,,-99.99,WSDL version 423,2013-03-14 19:32:00,
2013-03-14 14:33:00,48.5,20.8,30.21,North,-999,-999.0,-999.0,33,-99.99,,,-99.99,WSDL version 423,2013-03-14 19:33:00,
2013-03-14 14:37:00,48.9,21.0,30.21,North,-999,-999.0,-999.0,33,-99.99,,,-99.99,WSDL version 423,2013-03-14 19:37:00,
2013-03-14 14:39:00,48.9,21.1,30.21,North,-999,-999.0,-999.0,33,-99.99,,,-99.99,WSDL version 423,2013-03-14 19:39:00,
2013-03-14 14:42:00,48.9,21.1,30.21,North,-999,-999.0,-999.0,33,-99.99,,,-99.99,WSDL version 423,2013-03-14 19:42:00,
2013-03-14 14:46:00,49.3,21.4,30.21,North,-999,-999.0,-999.0,33,-99.99,,,-99.99,WSDL version 423,2013-03-14 19:46:00,
2013-03-14 14:47:00,49.3,21.4,30.21,North,-999,-999.0,-999.0,33,-99.99,,,-99.99,WSDL version 423,2013-03-14 19:47:00,
2013-03-14 14:51:00,49.6,21.7,30.21,North,-999,-999.0,-999.0,33,-99.99,,,-99.99,WSDL version 423,2013-03-14 19:51:00,
2013-03-14 14:52:00,49.6,21.7,30.21,North,-999,-999.0,-999.0,33,-99.99,,,-99.99,WSDL version 423,2013-03-14 19:52:00,
2013-03-14 14:54:00,49.6,21.7,30.21,North,-999,-999.0,-999.0,33,-99.99,,,-99.99,WSDL version 423,2013-03-14 19:54:00,
2013-03-14 14:57:00,49.6,21.7,30.21,North,-999,-999.0,-999.0,33,-99.99,,,-99.99,WSDL version 423,2013-03-14 19:57:00,
2013-03-14 15:00:00,49.6,21.7,30.18,North,-999,-999.0,-999.0,33,-99.99,,,-99.99,WSDL version 423,2013-03-14 20:00:00,
2013-03-14 15:02:00,49.6,21.7,30.18,North,-999,-999.0,-999.0,33,-99.99,,,-99.99,WSDL version 423,2013-03-14 20:02:00,
2013-03-14 15:04:00,49.6,21.7,30.18,North,-999,-999.0,-999.0,33,-99.99,,,-99.99,WSDL version 423,2013-03-14 20:04:00,
2013-03-14 15:05:00,49.7,21.7,30.18,North,-999,-999.0,-999.0,33,-99.99,,,-99.99,WSDL version 423,2013-03-14 20:05:00,
2013-03-14 15:07:00,49.7,21.7,30.18,North,-999,-999.0,-999.0,33,-99.99,,,-99.99,WSDL version 423,2013-03-14 20:07:00,
2013-03-14 15:09:00,49.7,21.7,30.18,North,-999,-999.0,-999.0,33,-99.99,,,-99.99,WSDL version 423,2013-03-14 20:09:00,
2013-03-14 15:10:00,49.6,21.7,30.18,North,-999,-999.0,-999.0,33,-99.99,,,-99.99,WSDL version 423,2013-03-14 20:10:00,
2013-03-14 15:11:00,49.6,21.7,30.18,North,-999,-999.0,-999.0,33,-99.99,,,-99.99,WSDL version 423,2013-03-14 20:11:00,
2013-03-14 15:14:00,49.5,21.6,30.18,North,-999,-999.0,-999.0,33,-99.99,,,-99.99,WSDL version 423,2013-03-14 20:14:00,
2013-03-14 15:15:00,49.5,21.6,30.18,North,-999,-999.0,-999.0,33,-99.99,,,-99.99,WSDL version 423,2013-03-14 20:15:00,
2013-03-14 15:17:00,49.4,21.5,30.18,North,-999,-999.0,-999.0,33,-99.99,,,-99.99,WSDL version 423,2013-03-14 20:17:00,
2013-03-14 15:19:00,49.3,21.4,30.18,North,-999,-999.0,-999.0,33,-99.99,,,-99.99,WSDL version 423,2013-03-14 20:19:00,
2013-03-14 15:21:00,49.3,21.4,30.18,North,-999,-999.0,-999.0,33,-99.99,,,-99.99,WSDL version 423,2013-03-14 20:21:00,
2013-03-14 15:22:00,49.2,21.3,30.18,North,-999,-999.0,-999.0,33,-99.99,,,-99.99,WSDL version 423,2013-03-14 20:22:00,
2013-03-14 15:24:00,49.1,21.3,30.18,North,-999,-999.0,-999.0,33,-99.99,,,-99.99,WSDL version 423,2013-03-14 20:24:00,
2013-03-14 15:25:00,49.1,21.2,30.18,North,-999,-999.0,-999.0,33,-99.99,,,-99.99,WSDL version 423,2013-03-14 20:25:00,
2013-03-14 15:27:00,48.8,21.0,30.18,North,-999,-999.0,-999.0,33,-99.99,,,-99.99,WSDL version 423,2013-03-14 20:27:00,
2013-03-14 15:29:00,48.5,20.9,30.18,North,-999,-999.0,-999.0,34,-99.99,,,-99.99,WSDL version 423,2013-03-14 20:29:00,
2013-03-14 15:30:00,48.3,20.9,30.15,North,-999,-999.0,-999.0,34,-99.99,,,-99.99,WSDL version 423,2013-03-14 20:30:00,
2013-03-14 15:33:00,47.6,20.7,30.15,North,-999,-999.0,-999.0,35,-99.99,,,-99.99,WSDL version 423,2013-03-14 20:33:00,
2013-03-14 15:35:00,47.2,20.8,30.15,North,-999,-999.0,-999.0,36,-99.99,,,-99.99,WSDL version 423,2013-03-14 20:35:00,
2013-03-14 15:36:00,47.0,21.3,30.15,North,-999,-999.0,-999.0,39,-99.99,,,-99.99,WSDL version 423,2013-03-14 20:36:00,
2013-03-14 15:38:00,46.4,23.4,30.15,North,-999,-999.0,-999.0,43,-99.99,,,-99.99,WSDL version 423,2013-03-14 20:38:00,
2013-03-14 15:42:00,45.7,24.8,30.15,North,-999,-999.0,-999.0,44,-99.99,,,-99.99,WSDL version 423,2013-03-14 20:42:00,
2013-03-14 15:43:00,45.6,24.7,30.15,North,-999,-999.0,-999.0,44,-99.99,,,-99.99,WSDL version 423,2013-03-14 20:43:00,
2013-03-14 15:48:00,45.1,24.6,30.15,North,-999,-999.0,-999.0,44,-99.99,,,-99.99,WSDL version 423,2013-03-14 20:48:00,
2013-03-14 15:49:00,44.9,24.5,30.15,North,-999,-999.0,-999.0,44,-99.99,,,-99.99,WSDL version 423,2013-03-14 20:49:00,
2013-03-14 15:53:00,44.7,24.6,30.15,North,-999,-999.0,-999.0,45,-99.99,,,-99.99,WSDL version 423,2013-03-14 20:53:00,
2013-03-14 15:54:00,44.7,24.6,30.15,North,-999,-999.0,-999.0,45,-99.99,,,-99.99,WSDL version 423,2013-03-14 20:54:00,
2013-03-14 15:55:00,44.6,24.7,30.15,North,-999,-999.0,-999.0,46,-99.99,,,-99.99,WSDL version 423,2013-03-14 20:55:00,
2013-03-14 15:57:00,44.5,24.9,30.15,North,-999,-999.0,-999.0,46,-99.99,,,-99.99,WSDL version 423,2013-03-14 20:57:00,
2013-03-14 15:59:00,44.5,25.0,30.15,North,-999,-999.0,-999.0,46,-99.99,,,-99.99,WSDL version 423,2013-03-14 20:59:00,
2013-03-14 16:02:00,44.3,25.3,30.15,North,-999,-999.0,-999.0,47,-99.99,,,-99.99,WSDL version 423,2013-03-14 21:02:00,
2013-03-14 16:04:00,44.2,25.8,30.15,North,-999,-999.0,-999.0,51,-99.99,,,-99.99,WSDL version 423,2013-03-14 21:04:00,
2013-03-14 16:06:00,44.0,26.5,30.15,North,-999,-999.0,-999.0,52,-99.99,,,-99.99,WSDL version 423,2013-03-14 21:06:00,
2013-03-14 16:09:00,43.8,26.9,30.15,North,-999,-999.0,-999.0,51,-99.99,,,-99.99,WSDL version 423,2013-03-14 21:09:00,
2013-03-14 16:10:00,43.7,26.8,30.15,North,-999,-999.0,-999.0,52,-99.99,,,-99.99,WSDL version 423,2013-03-14 21:10:00,
2013-03-14 16:11:00,43.7,26.9,30.15,North,-999,-999.0,-999.0,52,-99.99,,,-99.99,WSDL version 423,2013-03-14 21:11:00,
2013-03-14 16:13:00,43.7,27.2,30.15,North,-999,-999.0,-999.0,53,-99.99,,,-99.99,WSDL version 423,2013-03-14 21:13:00,
2013-03-14 16:14:00,43.7,27.4,30.15,North,-999,-999.0,-999.0,52,-99.99,,,-99.99,WSDL version 423,2013-03-14 21:14:00,
2013-03-14 16:17:00,43.6,27.4,30.15,North,-999,-999.0,-999.0,52,-99.99,,,-99.99,WSDL version 423,2013-03-14 21:17:00,
2013-03-14 16:19:00,43.5,27.3,30.15,North,-999,-999.0,-999.0,52,-99.99,,,-99.99,WSDL version 423,2013-03-14 21:19:00,
2013-03-14 16:22:00,43.5,27.2,30.15,North,-999,-999.0,-999.0,52,-99.99,,,-99.99,WSDL version 423,2013-03-14 21:22:00,
2013-03-14 16:25:00,43.5,27.2,30.15,North,-999,-999.0,-999.0,52,-99.99,,,-99.99,WSDL version 423,2013-03-14 21:25:00,
2013-03-14 16:26:00,43.5,27.2,30.15,North,-999,-999.0,-999.0,52,-99.99,,,-99.99,WSDL version 423,2013-03-14 21:26:00,
2013-03-14 16:29:00,43.5,27.4,30.15,North,-999,-999.0,-999.0,53,-99.99,,,-99.99,WSDL version 423,2013-03-14 21:29:00,
2013-03-14 16:30:00,43.5,27.5,30.15,North,-999,-999.0,-999.0,53,-99.99,,,-99.99,WSDL version 423,2013-03-14 21:30:00,
2013-03-14 16:34:00,43.5,27.8,30.15,North,-999,-999.0,-999.0,54,-99.99,,,-99.99,WSDL version 423,2013-03-14 21:34:00,
2013-03-14 16:36:00,43.5,28.0,30.15,North,-999,-999.0,-999.0,54,-99.99,,,-99.99,WSDL version 423,2013-03-14 21:36:00,
2013-03-14 16:37:00,43.5,28.0,30.15,North,-999,-999.0,-999.0,54,-99.99,,,-99.99,WSDL version 423,2013-03-14 21:37:00,
2013-03-14 16:39:00,43.5,28.0,30.15,North,-999,-999.0,-999.0,54,-99.99,,,-99.99,WSDL version 423,2013-03-14 21:39:00,
2013-03-14 16:42:00,43.5,28.1,30.15,North,-999,-999.0,-999.0,54,-99.99,,,-99.99,WSDL version 423,2013-03-14 21:42:00,
2013-03-14 16:45:00,43.5,28.0,30.15,North,-999,-999.0,-999.0,54,-99.99,,,-99.99,WSDL version 423,2013-03-14 21:45:00,
2013-03-14 16:48:00,43.4,28.0,30.15,North,-999,-999.0,-999.0,55,-99.99,,,-99.99,WSDL version 423,2013-03-14 21:48:00,
2013-03-14 16:49:00,43.4,28.1,30.15,North,-999,-999.0,-999.0,55,-99.99,,,-99.99,WSDL version 423,2013-03-14 21:49:00,
2013-03-14 16:50:00,43.3,28.1,30.15,North,-999,-999.0,-999.0,55,-99.99,,,-99.99,WSDL version 423,2013-03-14 21:50:00,
2013-03-14 16:51:00,43.3,28.3,30.15,North,-999,-999.0,-999.0,56,-99.99,,,-99.99,WSDL version 423,2013-03-14 21:51:00,
2013-03-14 16:53:00,43.2,28.6,30.15,North,-999,-999.0,-999.0,57,-99.99,,,-99.99,WSDL version 423,2013-03-14 21:53:00,
2013-03-14 16:56:00,43.1,29.1,30.15,North,-999,-999.0,-999.0,58,-99.99,,,-99.99,WSDL version 423,2013-03-14 21:56:00,
2013-03-14 16:58:00,43.1,29.4,30.15,North,-999,-999.0,-999.0,58,-99.99,,,-99.99,WSDL version 423,2013-03-14 21:58:00,
2013-03-14 16:59:00,43.1,29.4,30.15,North,-999,-999.0,-999.0,58,-99.99,,,-99.99,WSDL version 423,2013-03-14 21:59:00,
2013-03-14 17:03:00,43.1,29.5,30.15,North,-999,-999.0,-999.0,58,-99.99,,,-99.99,WSDL version 423,2013-03-14 22:03:00,
2013-03-14 17:05:00,43.1,29.6,30.15,North,-999,-999.0,-999.0,59,-99.99,,,-99.99,WSDL version 423,2013-03-14 22:05:00,
2013-03-14 17:06:00,43.1,29.6,30.15,North,-999,-999.0,-999.0,60,-99.99,,,-99.99,WSDL version 423,2013-03-14 22:06:00,
2013-03-14 17:10:00,43.0,30.1,30.15,North,-999,-999.0,-999.0,61,-99.99,,,-99.99,WSDL version 423,2013-03-14 22:10:00,
2013-03-14 17:15:00,42.8,30.0,30.12,North,-999,-999.0,-999.0,61,-99.99,,,-99.99,WSDL version 423,2013-03-14 22:15:00,
2013-03-14 17:16:00,42.8,30.1,30.12,North,-999,-999.0,-999.0,62,-99.99,,,-99.99,WSDL version 423,2013-03-14 22:16:00,
2013-03-14 17:17:00,42.8,30.1,30.12,North,-999,-999.0,-999.0,62,-99.99,,,-99.99,WSDL version 423,2013-03-14 22:17:00,
2013-03-14 17:19:00,42.8,30.5,30.12,North,-999,-999.0,-999.0,63,-99.99,,,-99.99,WSDL version 423,2013-03-14 22:19:00,
2013-03-14 17:22:00,42.8,31.1,30.12,North,-999,-999.0,-999.0,63,-99.99,,,-99.99,WSDL version 423,2013-03-14 22:22:00,
2013-03-14 17:25:00,42.8,31.1,30.12,North,-999,-999.0,-999.0,64,-99.99,,,-99.99,WSDL version 423,2013-03-14 22:25:00,
2013-03-14 17:26:00,42.8,31.2,30.12,North,-999,-999.0,-999.0,64,-99.99,,,-99.99,WSDL version 423,2013-03-14 22:26:00,
2013-03-14 17:27:00,42.8,31.3,30.12,North,-999,-999.0,-999.0,64,-99.99,,,-99.99,WSDL version 423,2013-03-14 22:27:00,
2013-03-14 17:29:00,42.7,31.6,30.12,North,-999,-999.0,-999.0,65,-99.99,,,-99.99,WSDL version 423,2013-03-14 22:29:00,
2013-03-14 17:31:00,42.7,31.7,30.12,North,-999,-999.0,-999.0,66,-99.99,,,-99.99,WSDL version 423,2013-03-14 22:31:00,
2013-03-14 17:32:00,42.6,31.8,30.12,North,-999,-999.0,-999.0,65,-99.99,,,-99.99,WSDL version 423,2013-03-14 22:32:00,
2013-03-14 17:36:00,42.6,31.8,30.12,North,-999,-999.0,-999.0,66,-99.99,,,-99.99,WSDL version 423,2013-03-14 22:36:00,
2013-03-14 17:37:00,42.6,31.9,30.12,North,-999,-999.0,-999.0,66,-99.99,,,-99.99,WSDL version 423,2013-03-14 22:37:00,
2013-03-14 17:39:00,42.7,31.9,30.12,North,-999,-999.0,-999.0,65,-99.99,,,-99.99,WSDL version 423,2013-03-14 22:39:00,
2013-03-14 17:42:00,42.8,31.9,30.12,North,-999,-999.0,-999.0,65,-99.99,,,-99.99,WSDL version 423,2013-03-14 22:42:00,
2013-03-14 17:44:00,42.8,31.9,30.12,North,-999,-999.0,-999.0,65,-99.99,,,-99.99,WSDL version 423,2013-03-14 22:44:00,
2013-03-14 17:47:00,42.8,32.0,30.12,North,-999,-999.0,-999.0,66,-99.99,,,-99.99,WSDL version 423,2013-03-14 22:47:00,
2013-03-14 17:48:00,42.8,32.1,30.12,North,-999,-999.0,-999.0,66,-99.99,,,-99.99,WSDL version 423,2013-03-14 22:48:00,
2013-03-14 17:50:00,42.9,32.3,30.12,North,-999,-999.0,-999.0,66,-99.99,,,-99.99,WSDL version 423,2013-03-14 22:50:00,
2013-03-14 17:54:00,43.0,32.7,30.12,North,-999,-999.0,-999.0,68,-99.99,,,-99.99,WSDL version 423,2013-03-14 22:54:00,
2013-03-14 17:55:00,43.0,32.9,30.12,North,-999,-999.0,-999.0,69,-99.99,,,-99.99,WSDL version 423,2013-03-14 22:55:00,
2013-03-14 17:58:00,43.0,33.4,30.12,North,-999,-999.0,-999.0,69,-99.99,,,-99.99,WSDL version 423,2013-03-14 22:58:00,
2013-03-14 18:00:00,43.0,33.5,30.12,North,-999,-999.0,-999.0,69,-99.99,,,-99.99,WSDL version 423,2013-03-14 23:00:00,
2013-03-14 18:02:00,43.1,33.6,30.12,North,-999,-999.0,-999.0,69,-99.99,,,-99.99,WSDL version 423,2013-03-14 23:02:00,
2013-03-14 18:04:00,43.1,33.7,30.12,North,-999,-999.0,-999.0,70,-99.99,,,-99.99,WSDL version 423,2013-03-14 23:04:00,
2013-03-14 18:05:00,43.1,33.7,30.12,North,-999,-999.0,-999.0,70,-99.99,,,-99.99,WSDL version 423,2013-03-14 23:05:00,
2013-03-14 18:06:00,43.1,33.8,30.12,North,-999,-999.0,-999.0,70,-99.99,,,-99.99,WSDL version 423,2013-03-14 23:06:00,
2013-03-14 18:08:00,43.1,33.8,30.12,North,-999,-999.0,-999.0,69,-99.99,,,-99.99,WSDL version 423,2013-03-14 23:08:00,
2013-03-14 18:13:00,43.1,33.5,30.12,North,-999,-999.0,-999.0,68,-99.99,,,-99.99,WSDL version 423,2013-03-14 23:13:00,
2013-03-14 18:14:00,43.1,33.5,30.12,North,-999,-999.0,-999.0,69,-99.99,,,-99.99,WSDL version 423,2013-03-14 23:14:00,
2013-03-14 18:15:00,43.1,33.5,30.12,North,-999,-999.0,-999.0,69,-99.99,,,-99.99,WSDL version 423,2013-03-14 23:15:00,
2013-03-14 18:16:00,43.1,33.4,30.12,North,-999,-999.0,-999.0,68,-99.99,,,-99.99,WSDL version 423,2013-03-14 23:16:00,
2013-03-14 18:19:00,43.1,33.5,30.12,North,-999,-999.0,-999.0,69,-99.99,,,-99.99,WSDL version 423,2013-03-14 23:19:00,
2013-03-14 18:20:00,43.1,33.5,30.12,North,-999,-999.0,-999.0,69,-99.99,,,-99.99,WSDL version 423,2013-03-14 23:20:00,
2013-03-14 18:22:00,43.1,33.6,30.12,North,-999,-999.0,-999.0,69,-99.99,,,-99.99,WSDL version 423,2013-03-14 23:22:00,
2013-03-14 18:23:00,43.1,33.7,30.12,North,-999,-999.0,-999.0,69,-99.99,,,-99.99,WSDL version 423,2013-03-14 23:23:00,
2013-03-14 18:25:00,43.1,33.8,30.12,North,-999,-999.0,-999.0,70,-99.99,,,-99.99,WSDL version 423,2013-03-14 23:25:00,
2013-03-14 18:27:00,43.1,33.9,30.12,North,-999,-999.0,-999.0,71,-99.99,,,-99.99,WSDL version 423,2013-03-14 23:27:00,
2013-03-14 18:30:00,43.1,34.3,30.12,North,-999,-999.0,-999.0,72,-99.99,,,-99.99,WSDL version 423,2013-03-14 23:30:00,
2013-03-14 18:31:00,43.1,34.4,30.12,North,-999,-999.0,-999.0,72,-99.99,,,-99.99,WSDL version 423,2013-03-14 23:31:00,
2013-03-14 18:36:00,43.0,34.2,30.12,North,-999,-999.0,-999.0,71,-99.99,,,-99.99,WSDL version 423,2013-03-14 23:36:00,
2013-03-14 18:37:00,43.0,34.2,30.12,North,-999,-999.0,-999.0,71,-99.99,,,-99.99,WSDL version 423,2013-03-14 23:37:00,
2013-03-14 18:38:00,43.0,34.1,30.12,North,-999,-999.0,-999.0,71,-99.99,,,-99.99,WSDL version 423,2013-03-14 23:38:00,
2013-03-14 18:39:00,43.0,34.1,30.12,North,-999,-999.0,-999.0,71,-99.99,,,-99.99,WSDL version 423,2013-03-14 23:39:00,
2013-03-14 18:42:00,43.0,34.0,30.12,North,-999,-999.0,-999.0,70,-99.99,,,-99.99,WSDL version 423,2013-03-14 23:42:00,
2013-03-14 18:43:00,43.0,33.9,30.12,North,-999,-999.0,-999.0,70,-99.99,,,-99.99,WSDL version 423,2013-03-14 23:43:00,
2013-03-14 18:44:00,43.0,33.8,30.12,North,-999,-999.0,-999.0,70,-99.99,,,-99.99,WSDL version 423,2013-03-14 23:44:00,
2013-03-14 18:47:00,43.0,33.7,30.12,North,-999,-999.0,-999.0,69,-99.99,,,-99.99,WSDL version 423,2013-03-14 23:47:00,
2013-03-14 18:49:00,43.0,33.6,30.12,North,-999,-999.0,-999.0,69,-99.99,,,-99.99,WSDL version 423,2013-03-14 23:49:00,
2013-03-14 18:50:00,42.9,33.5,30.12,North,-999,-999.0,-999.0,69,-99.99,,,-99.99,WSDL version 423,2013-03-14 23:50:00,
2013-03-14 18:52:00,42.9,33.5,30.12,North,-999,-999.0,-999.0,70,-99.99,,,-99.99,WSDL version 423,2013-03-14 23:52:00,
2013-03-14 18:53:00,42.8,33.5,30.12,North,-999,-999.0,-999.0,70,-99.99,,,-99.99,WSDL version 423,2013-03-14 23:53:00,
2013-03-14 18:55:00,42.7,33.5,30.12,North,-999,-999.0,-999.0,70,-99.99,,,-99.99,WSDL version 423,2013-03-14 23:55:00,
2013-03-14 18:58:00,42.5,33.3,30.12,North,-999,-999.0,-999.0,69,-99.99,,,-99.99,WSDL version 423,2013-03-14 23:58:00,
2013-03-14 19:00:00,42.5,33.0,30.09,North,-999,-999.0,-999.0,69,-99.99,,,-99.99,WSDL version 423,2013-03-15 00:00:00,
2013-03-14 19:05:00,42.4,32.8,30.09,North,-999,-999.0,-999.0,69,-99.99,,,-99.99,WSDL version 423,2013-03-15 00:05:00,
2013-03-14 19:06:00,42.4,32.8,30.09,North,-999,-999.0,-999.0,69,-99.99,,,-99.99,WSDL version 423,2013-03-15 00:06:00,
2013-03-14 19:09:00,42.3,32.8,30.09,North,-999,-999.0,-999.0,69,-99.99,,,-99.99,WSDL version 423,2013-03-15 00:09:00,
2013-03-14 19:11:00,42.2,32.7,30.09,North,-999,-999.0,-999.0,69,-99.99,,,-99.99,WSDL version 423,2013-03-15 00:11:00,
2013-03-14 19:14:00,42.1,32.5,30.09,North,-999,-999.0,-999.0,68,-99.99,,,-99.99,WSDL version 423,2013-03-15 00:14:00,
2013-03-14 19:16:00,42.1,32.3,30.12,North,-999,-999.0,-999.0,68,-99.99,,,-99.99,WSDL version 423,2013-03-15 00:16:00,
2013-03-14 19:17:00,42.0,32.2,30.12,North,-999,-999.0,-999.0,68,-99.99,,,-99.99,WSDL version 423,2013-03-15 00:17:00,
2013-03-14 19:18:00,42.0,32.2,30.12,North,-999,-999.0,-999.0,68,-99.99,,,-99.99,WSDL version 423,2013-03-15 00:18:00,
2013-03-14 19:19:00,42.0,32.2,30.12,North,-999,-999.0,-999.0,68,-99.99,,,-99.99,WSDL version 423,2013-03-15 00:19:00,
2013-03-14 19:21:00,41.9,32.1,30.12,North,-999,-999.0,-999.0,68,-99.99,,,-99.99,WSDL version 423,2013-03-15 00:21:00,
2013-03-14 19:24:00,41.9,32.0,30.12,North,-999,-999.0,-999.0,68,-99.99,,,-99.99,WSDL version 423,2013-03-15 00:24:00,
2013-03-14 19:26:00,41.8,32.0,30.12,North,-999,-999.0,-999.0,68,-99.99,,,-99.99,WSDL version 423,2013-03-15 00:26:00,
2013-03-14 19:30:00,41.7,31.9,30.12,North,-999,-999.0,-999.0,68,-99.99,,,-99.99,WSDL version 423,2013-03-15 00:30:00,
2013-03-14 19:31:00,41.7,31.9,30.12,North,-999,-999.0,-999.0,68,-99.99,,,-99.99,WSDL version 423,2013-03-15 00:31:00,
2013-03-14 19:32:00,41.6,31.8,30.12,North,-999,-999.0,-999.0,68,-99.99,,,-99.99,WSDL version 423,2013-03-15 00:32:00,
2013-03-14 19:33:00,41.6,31.8,30.12,North,-999,-999.0,-999.0,68,-99.99,,,-99.99,WSDL version 423,2013-03-15 00:33:00,
2013-03-14 19:35:00,41.5,31.6,30.12,North,-999,-999.0,-999.0,67,-99.99,,,-99.99,WSDL version 423,2013-03-15 00:35:00,
2013-03-14 19:40:00,41.3,31.4,30.12,North,-999,-999.0,-999.0,68,-99.99,,,-99.99,WSDL version 423,2013-03-15 00:40:00,
2013-03-14 19:41:00,41.2,31.3,30.12,North,-999,-999.0,-999.0,67,-99.99,,,-99.99,WSDL version 423,2013-03-15 00:41:00,
2013-03-14 19:43:00,41.2,31.3,30.12,North,-999,-999.0,-999.0,68,-99.99,,,-99.99,WSDL version 423,2013-03-15 00:43:00,
2013-03-14 19:47:00,41.1,31.3,30.09,North,-999,-999.0,-999.0,68,-99.99,,,-99.99,WSDL version 423,2013-03-15 00:47:00,
2013-03-14 19:48:00,41.0,31.3,30.09,North,-999,-999.0,-999.0,69,-99.99,,,-99.99,WSDL version 423,2013-03-15 00:48:00,
2013-03-14 19:49:00,41.0,31.3,30.09,North,-999,-999.0,-999.0,68,-99.99,,,-99.99,WSDL version 423,2013-03-15 00:49:00,
2013-03-14 19:52:00,41.0,31.3,30.09,North,-999,-999.0,-999.0,68,-99.99,,,-99.99,WSDL version 423,2013-03-15 00:52:00,
2013-03-14 19:53:00,41.0,31.3,30.09,North,-999,-999.0,-999.0,68,-99.99,,,-99.99,WSDL version 423,2013-03-15 00:53:00,
2013-03-14 19:58:00,41.0,31.2,30.09,North,-999,-999.0,-999.0,68,-99.99,,,-99.99,WSDL version 423,2013-03-15 00:58:00,
2013-03-14 19:59:00,40.9,31.2,30.09,North,-999,-999.0,-999.0,68,-99.99,,,-99.99,WSDL version 423,2013-03-15 00:59:00,
2013-03-14 20:01:00,40.9,31.1,30.09,North,-999,-999.0,-999.0,68,-99.99,,,-99.99,WSDL version 423,2013-03-15 01:01:00,
2013-03-14 20:04:00,40.7,30.8,30.09,North,-999,-999.0,-999.0,68,-99.99,,,-99.99,WSDL version 423,2013-03-15 01:04:00,
2013-03-14 20:06:00,40.7,30.7,30.09,North,-999,-999.0,-999.0,67,-99.99,,,-99.99,WSDL version 423,2013-03-15 01:06:00,
2013-03-14 20:09:00,40.6,30.6,30.09,North,-999,-999.0,-999.0,67,-99.99,,,-99.99,WSDL version 423,2013-03-15 01:09:00,
2013-03-14 20:10:00,40.6,30.5,30.09,North,-999,-999.0,-999.0,67,-99.99,,,-99.99,WSDL version 423,2013-03-15 01:10:00,
2013-03-14 20:11:00,40.6,30.5,30.09,North,-999,-999.0,-999.0,67,-99.99,,,-99.99,WSDL version 423,2013-03-15 01:11:00,
2013-03-14 20:13:00,40.6,30.5,30.09,North,-999,-999.0,-999.0,67,-99.99,,,-99.99,WSDL version 423,2013-03-15 01:13:00,
2013-03-14 20:14:00,40.6,30.5,30.09,North,-999,-999.0,-999.0,67,-99.99,,,-99.99,WSDL version 423,2013-03-15 01:14:00,
2013-03-14 20:18:00,40.6,30.5,30.09,North,-999,-999.0,-999.0,67,-99.99,,,-99.99,WSDL version 423,2013-03-15 01:18:00,
2013-03-14 20:19:00,40.6,30.5,30.09,North,-999,-999.0,-999.0,67,-99.99,,,-99.99,WSDL version 423,2013-03-15 01:19:00,
2013-03-14 20:20:00,40.5,30.4,30.09,North,-999,-999.0,-999.0,67,-99.99,,,-99.99,WSDL version 423,2013-03-15 01:20:00,
2013-03-14 20:23:00,40.4,30.4,30.09,North,-999,-999.0,-999.0,67,-99.99,,,-99.99,WSDL version 423,2013-03-15 01:23:00,
2013-03-14 20:25:00,40.4,30.5,30.09,North,-999,-999.0,-999.0,68,-99.99,,,-99.99,WSDL version 423,2013-03-15 01:25:00,
2013-03-14 20:26:00,40.4,30.5,30.09,North,-999,-999.0,-999.0,68,-99.99,,,-99.99,WSDL version 423,2013-03-15 01:26:00,
2013-03-14 20:30:00,40.4,30.6,30.09,North,-999,-999.0,-999.0,67,-99.99,,,-99.99,WSDL version 423,2013-03-15 01:30:00,
2013-03-14 20:31:00,40.4,30.5,30.09,North,-999,-999.0,-999.0,67,-99.99,,,-99.99,WSDL version 423,2013-03-15 01:31:00,
2013-03-14 20:34:00,40.4,30.4,30.09,North,-999,-999.0,-999.0,67,-99.99,,,-99.99,WSDL version 423,2013-03-15 01:34:00,
2013-03-14 20:37:00,40.4,30.4,30.09,North,-999,-999.0,-999.0,67,-99.99,,,-99.99,WSDL version 423,2013-03-15 01:37:00,
2013-03-14 20:38:00,40.4,30.4,30.09,North,-999,-999.0,-999.0,67,-99.99,,,-99.99,WSDL version 423,2013-03-15 01:38:00,
2013-03-14 20:41:00,40.4,30.4,30.09,North,-999,-999.0,-999.0,67,-99.99,,,-99.99,WSDL version 423,2013-03-15 01:41:00,
2013-03-14 20:42:00,40.4,30.3,30.09,North,-999,-999.0,-999.0,67,-99.99,,,-99.99,WSDL version 423,2013-03-15 01:42:00,
2013-03-14 20:43:00,40.4,30.3,30.09,North,-999,-999.0,-999.0,67,-99.99,,,-99.99,WSDL version 423,2013-03-15 01:43:00,
2013-03-14 20:47:00,40.3,30.2,30.09,North,-999,-999.0,-999.0,67,-99.99,,,-99.99,WSDL version 423,2013-03-15 01:47:00,
2013-03-14 20:48:00,40.3,30.2,30.09,North,-999,-999.0,-999.0,67,-99.99,,,-99.99,WSDL version 423,2013-03-15 01:48:00,
2013-03-14 20:50:00,40.3,30.2,30.09,North,-999,-999.0,-999.0,67,-99.99,,,-99.99,WSDL version 423,2013-03-15 01:50:00,
2013-03-14 20:53:00,40.2,30.3,30.09,North,-999,-999.0,-999.0,68,-99.99,,,-99.99,WSDL version 423,2013-03-15 01:53:00,
2013-03-14 20:55:00,40.1,30.4,30.09,North,-999,-999.0,-999.0,68,-99.99,,,-99.99,WSDL version 423,2013-03-15 01:55:00,
2013-03-14 20:56:00,40.1,30.3,30.09,North,-999,-999.0,-999.0,68,-99.99,,,-99.99,WSDL version 423,2013-03-15 01:56:00,
2013-03-14 20:59:00,40.1,30.3,30.09,North,-999,-999.0,-999.0,68,-99.99,,,-99.99,WSDL version 423,2013-03-15 01:59:00,
2013-03-14 21:00:00,40.0,30.2,30.09,North,-999,-999.0,-999.0,67,-99.99,,,-99.99,WSDL version 423,2013-03-15 02:00:00,
2013-03-14 21:03:00,39.9,29.9,30.09,North,-999,-999.0,-999.0,67,-99.99,,,-99.99,WSDL version 423,2013-03-15 02:03:00,
2013-03-14 21:06:00,39.8,29.8,30.09,North,-999,-999.0,-999.0,67,-99.99,,,-99.99,WSDL version 423,2013-03-15 02:06:00,
2013-03-14 21:09:00,39.7,29.8,30.09,North,-999,-999.0,-999.0,68,-99.99,,,-99.99,WSDL version 423,2013-03-15 02:09:00,
2013-03-14 21:10:00,39.7,29.8,30.09,North,-999,-999.0,-999.0,67,-99.99,,,-99.99,WSDL version 423,2013-03-15 02:10:00,
2013-03-14 21:12:00,39.6,29.8,30.09,North,-999,-999.0,-999.0,68,-99.99,,,-99.99,WSDL version 423,2013-03-15 02:12:00,
2013-03-14 21:16:00,39.5,29.8,30.09,North,-999,-999.0,-999.0,68,-99.99,,,-99.99,WSDL version 423,2013-03-15 02:16:00,
2013-03-14 21:18:00,39.4,29.7,30.09,North,-999,-999.0,-999.0,68,-99.99,,,-99.99,WSDL version 423,2013-03-15 02:18:00,
2013-03-14 21:19:00,39.4,29.7,30.09,North,-999,-999.0,-999.0,68,-99.99,,,-99.99,WSDL version 423,2013-03-15 02:19:00,
2013-03-14 21:22:00,39.4,29.7,30.09,North,-999,-999.0,-999.0,68,-99.99,,,-99.99,WSDL version 423,2013-03-15 02:22:00,
2013-03-14 21:25:00,39.3,29.6,30.09,North,-999,-999.0,-999.0,68,-99.99,,,-99.99,WSDL version 423,2013-03-15 02:25:00,
2013-03-14 21:27:00,39.3,29.6,30.09,North,-999,-999.0,-999.0,68,-99.99,,,-99.99,WSDL version 423,2013-03-15 02:27:00,
2013-03-14 21:29:00,39.2,29.5,30.09,North,-999,-999.0,-999.0,68,-99.99,,,-99.99,WSDL version 423,2013-03-15 02:29:00,
2013-03-14 21:30:00,39.2,29.5,30.09,North,-999,-999.0,-999.0,68,-99.99,,,-99.99,WSDL version 423,2013-03-15 02:30:00,
2013-03-14 21:31:00,39.2,29.5,30.09,North,-999,-999.0,-999.0,68,-99.99,,,-99.99,WSDL version 423,2013-03-15 02:31:00,
2013-03-14 21:32:00,39.2,29.5,30.09,North,-999,-999.0,-999.0,68,-99.99,,,-99.99,WSDL version 423,2013-03-15 02:32:00,
2013-03-14 21:36:00,39.1,29.4,30.09,North,-999,-999.0,-999.0,68,-99.99,,,-99.99,WSDL version 423,2013-03-15 02:36:00,
2013-03-14 21:38:00,39.0,29.3,30.09,North,-999,-999.0,-999.0,68,-99.99,,,-99.99,WSDL version 423,2013-03-15 02:38:00,
2013-03-14 21:39:00,39.0,29.3,30.09,North,-999,-999.0,-999.0,68,-99.99,,,-99.99,WSDL version 423,2013-03-15 02:39:00,
2013-03-14 21:40:00,39.0,29.3,30.09,North,-999,-999.0,-999.0,69,-99.99,,,-99.99,WSDL version 423,2013-03-15 02:40:00,
2013-03-14 21:41:00,38.9,29.4,30.09,North,-999,-999.0,-999.0,69,-99.99,,,-99.99,WSDL version 423,2013-03-15 02:41:00,
2013-03-14 21:44:00,38.8,29.3,30.09,North,-999,-999.0,-999.0,69,-99.99,,,-99.99,WSDL version 423,2013-03-15 02:44:00,
2013-03-14 21:45:00,38.8,29.3,30.09,North,-999,-999.0,-999.0,69,-99.99,,,-99.99,WSDL version 423,2013-03-15 02:45:00,
2013-03-14 21:47:00,38.9,29.6,30.09,North,-999,-999.0,-999.0,70,-99.99,,,-99.99,WSDL version 423,2013-03-15 02:47:00,
2013-03-14 21:50:00,38.9,29.8,30.09,North,-999,-999.0,-999.0,70,-99.99,,,-99.99,WSDL version 423,2013-03-15 02:50:00,
2013-03-14 21:51:00,38.9,29.9,30.09,North,-999,-999.0,-999.0,70,-99.99,,,-99.99,WSDL version 423,2013-03-15 02:51:00,
2013-03-14 21:52:00,38.9,29.9,30.09,North,-999,-999.0,-999.0,70,-99.99,,,-99.99,WSDL version 423,2013-03-15 02:52:00,
2013-03-14 21:53:00,39.0,29.9,30.09,North,-999,-999.0,-999.0,70,-99.99,,,-99.99,WSDL version 423,2013-03-15 02:53:00,
2013-03-14 21:57:00,39.0,30.0,30.09,North,-999,-999.0,-999.0,71,-99.99,,,-99.99,WSDL version 423,2013-03-15 02:57:00,
2013-03-14 22:00:00,39.0,30.3,30.09,North,-999,-999.0,-999.0,71,-99.99,,,-99.99,WSDL version 423,2013-03-15 03:00:00,
2013-03-14 22:01:00,39.0,30.3,30.09,North,-999,-999.0,-999.0,71,-99.99,,,-99.99,WSDL version 423,2013-03-15 03:01:00,
2013-03-14 22:03:00,39.0,30.3,30.09,North,-999,-999.0,-999.0,71,-99.99,,,-99.99,WSDL version 423,2013-03-15 03:03:00,
2013-03-14 22:07:00,39.0,30.2,30.09,North,-999,-999.0,-999.0,71,-99.99,,,-99.99,WSDL version 423,2013-03-15 03:07:00,
2013-03-14 22:08:00,39.0,30.4,30.09,North,-999,-999.0,-999.0,72,-99.99,,,-99.99,WSDL version 423,2013-03-15 03:08:00,
2013-03-14 22:11:00,39.0,30.6,30.09,North,-999,-999.0,-999.0,72,-99.99,,,-99.99,WSDL version 423,2013-03-15 03:11:00,
2013-03-14 22:14:00,39.1,30.9,30.09,North,-999,-999.0,-999.0,72,-99.99,,,-99.99,WSDL version 423,2013-03-15 03:14:00,
2013-03-14 22:16:00,39.2,31.1,30.06,North,-999,-999.0,-999.0,72,-99.99,,,-99.99,WSDL version 423,2013-03-15 03:16:00,
2013-03-14 22:18:00,39.2,31.1,30.06,North,-999,-999.0,-999.0,72,-99.99,,,-99.99,WSDL version 423,2013-03-15 03:18:00,
2013-03-14 22:19:00,39.2,31.1,30.06,North,-999,-999.0,-999.0,72,-99.99,,,-99.99,WSDL version 423,2013-03-15 03:19:00,
2013-03-14 22:22:00,39.2,31.1,30.06,North,-999,-999.0,-999.0,72,-99.99,,,-99.99,WSDL version 423,2013-03-15 03:22:00,
2013-03-14 22:23:00,39.2,31.1,30.06,North,-999,-999.0,-999.0,72,-99.99,,,-99.99,WSDL version 423,2013-03-15 03:23:00,
2013-03-14 22:24:00,39.2,31.1,30.06,North,-999,-999.0,-999.0,72,-99.99,,,-99.99,WSDL version 423,2013-03-15 03:24:00,
2013-03-14 22:27:00,39.2,31.1,30.06,North,-999,-999.0,-999.0,72,-99.99,,,-99.99,WSDL version 423,2013-03-15 03:27:00,
2013-03-14 22:28:00,39.2,31.0,30.06,North,-999,-999.0,-999.0,72,-99.99,,,-99.99,WSDL version 423,2013-03-15 03:28:00,
2013-03-14 22:30:00,39.2,30.9,30.06,North,-999,-999.0,-999.0,72,-99.99,,,-99.99,WSDL version 423,2013-03-15 03:30:00,
2013-03-14 22:31:00,39.2,30.8,30.06,North,-999,-999.0,-999.0,72,-99.99,,,-99.99,WSDL version 423,2013-03-15 03:31:00,
2013-03-14 22:35:00,39.1,30.5,30.06,North,-999,-999.0,-999.0,71,-99.99,,,-99.99,WSDL version 423,2013-03-15 03:35:00,
2013-03-14 22:36:00,39.0,30.4,30.06,North,-999,-999.0,-999.0,71,-99.99,,,-99.99,WSDL version 423,2013-03-15 03:36:00,
2013-03-14 22:38:00,39.0,30.3,30.06,North,-999,-999.0,-999.0,71,-99.99,,,-99.99,WSDL version 423,2013-03-15 03:38:00,
2013-03-14 22:41:00,39.0,30.3,30.06,North,-999,-999.0,-999.0,71,-99.99,,,-99.99,WSDL version 423,2013-03-15 03:41:00,
2013-03-14 22:43:00,39.0,30.3,30.06,North,-999,-999.0,-999.0,71,-99.99,,,-99.99,WSDL version 423,2013-03-15 03:43:00,
2013-03-14 22:44:00,39.0,30.3,30.06,North,-999,-999.0,-999.0,71,-99.99,,,-99.99,WSDL version 423,2013-03-15 03:44:00,
2013-03-14 22:48:00,39.0,30.2,30.06,North,-999,-999.0,-999.0,70,-99.99,,,-99.99,WSDL version 423,2013-03-15 03:48:00,
2013-03-14 22:49:00,39.0,30.1,30.06,North,-999,-999.0,-999.0,70,-99.99,,,-99.99,WSDL version 423,2013-03-15 03:49:00,
2013-03-14 22:52:00,38.9,29.9,30.06,North,-999,-999.0,-999.0,70,-99.99,,,-99.99,WSDL version 423,2013-03-15 03:52:00,
2013-03-14 22:53:00,38.9,29.8,30.06,North,-999,-999.0,-999.0,70,-99.99,,,-99.99,WSDL version 423,2013-03-15 03:53:00,
2013-03-14 22:54:00,38.8,29.8,30.06,North,-999,-999.0,-999.0,70,-99.99,,,-99.99,WSDL version 423,2013-03-15 03:54:00,
2013-03-14 22:57:00,38.8,29.8,30.06,North,-999,-999.0,-999.0,70,-99.99,,,-99.99,WSDL version 423,2013-03-15 03:57:00,
2013-03-14 22:59:00,38.8,29.7,30.06,North,-999,-999.0,-999.0,69,-99.99,,,-99.99,WSDL version 423,2013-03-15 03:59:00,
2013-03-14 23:00:00,38.8,29.7,30.06,North,-999,-999.0,-999.0,70,-99.99,,,-99.99,WSDL version 423,2013-03-15 04:00:00,
2013-03-14 23:02:00,38.8,29.6,30.06,North,-999,-999.0,-999.0,69,-99.99,,,-99.99,WSDL version 423,2013-03-15 04:02:00,
2013-03-14 23:05:00,38.7,29.5,30.06,North,-999,-999.0,-999.0,70,-99.99,,,-99.99,WSDL version 423,2013-03-15 04:05:00,
2013-03-14 23:08:00,38.6,29.5,30.06,North,-999,-999.0,-999.0,69,-99.99,,,-99.99,WSDL version 423,2013-03-15 04:08:00,
2013-03-14 23:09:00,38.6,29.4,30.06,North,-999,-999.0,-999.0,69,-99.99,,,-99.99,WSDL version 423,2013-03-15 04:09:00,
2013-03-14 23:10:00,38.6,29.3,30.06,North,-999,-999.0,-999.0,69,-99.99,,,-99.99,WSDL version 423,2013-03-15 04:10:00,
2013-03-14 23:12:00,38.7,29.3,30.06,North,-999,-999.0,-999.0,69,-99.99,,,-99.99,WSDL version 423,2013-03-15 04:12:00,
2013-03-14 23:14:00,38.7,29.3,30.06,North,-999,-999.0,-999.0,69,-99.99,,,-99.99,WSDL version 423,2013-03-15 04:14:00,
2013-03-14 23:17:00,38.6,29.3,30.06,North,-999,-999.0,-999.0,69,-99.99,,,-99.99,WSDL version 423,2013-03-15 04:17:00,
2013-03-14 23:19:00,38.6,29.3,30.06,North,-999,-999.0,-999.0,69,-99.99,,,-99.99,WSDL version 423,2013-03-15 04:19:00,
2013-03-14 23:21:00,38.6,29.3,30.06,North,-999,-999.0,-999.0,69,-99.99,,,-99.99,WSDL version 423,2013-03-15 04:21:00,
2013-03-14 23:22:00,38.6,29.3,30.06,North,-999,-999.0,-999.0,69,-99.99,,,-99.99,WSDL version 423,2013-03-15 04:22:00,
2013-03-14 23:26:00,38.6,29.3,30.06,North,-999,-999.0,-999.0,69,-99.99,,,-99.99,WSDL version 423,2013-03-15 04:26:00,
2013-03-14 23:27:00,38.6,29.3,30.06,North,-999,-999.0,-999.0,69,-99.99,,,-99.99,WSDL version 423,2013-03-15 04:27:00,
2013-03-14 23:29:00,38.6,29.2,30.06,North,-999,-999.0,-999.0,68,-99.99,,,-99.99,WSDL version 423,2013-03-15 04:29:00,
2013-03-14 23:32:00,38.5,28.9,30.06,North,-999,-999.0,-999.0,68,-99.99,,,-99.99,WSDL version 423,2013-03-15 04:32:00,
2013-03-14 23:35:00,38.5,29.0,30.06,North,-999,-999.0,-999.0,69,-99.99,,,-99.99,WSDL version 423,2013-03-15 04:35:00,
2013-03-14 23:37:00,38.6,29.2,30.06,North,-999,-999.0,-999.0,69,-99.99,,,-99.99,WSDL version 423,2013-03-15 04:37:00,
2013-03-14 23:38:00,38.6,29.2,30.06,North,-999,-999.0,-999.0,69,-99.99,,,-99.99,WSDL version 423,2013-03-15 04:38:00,
2013-03-14 23:39:00,38.6,29.3,30.06,North,-999,-999.0,-999.0,69,-99.99,,,-99.99,WSDL version 423,2013-03-15 04:39:00,
2013-03-14 23:40:00,38.6,29.3,30.06,North,-999,-999.0,-999.0,69,-99.99,,,-99.99,WSDL version 423,2013-03-15 04:40:00,
2013-03-14 23:44:00,38.6,29.3,30.06,North,-999,-999.0,-999.0,69,-99.99,,,-99.99,WSDL version 423,2013-03-15 04:44:00,
2013-03-14 23:45:00,38.6,29.2,30.06,North,-999,-999.0,-999.0,68,-99.99,,,-99.99,WSDL version 423,2013-03-15 04:45:00,
2013-03-14 23:47:00,38.6,29.1,30.06,North,-999,-999.0,-999.0,68,-99.99,,,-99.99,WSDL version 423,2013-03-15 04:47:00,
2013-03-14 23:49:00,38.6,29.0,30.06,North,-999,-999.0,-999.0,68,-99.99,,,-99.99,WSDL version 423,2013-03-15 04:49:00,
2013-03-14 23:51:00,38.7,29.0,30.06,North,-999,-999.0,-999.0,68,-99.99,,,-99.99,WSDL version 423,2013-03-15 04:51:00,
2013-03-14 23:53:00,38.8,29.1,30.06,North,-999,-999.0,-999.0,68,-99.99,,,-99.99,WSDL version 423,2013-03-15 04:53:00,
2013-03-14 23:54:00,38.8,29.1,30.06,North,-999,-999.0,-999.0,68,-99.99,,,-99.99,WSDL version 423,2013-03-15 04:54:00,
2013-03-14 23:55:00,38.8,29.1,30.06,North,-999,-999.0,-999.0,68,-99.99,,,-99.99,WSDL version 423,2013-03-15 04:55:00,
2013-03-14 23:59:00,38.8,28.9,30.06,North,-999,-999.0,-999.0,67,-99.99,,,-99.99,WSDL version 423,2013-03-15 04:59:00,